Wetterdaten: Mittwoch, 14.12.2011
Datum Zeit Temp. Innen Temp. Aussen UV X Diff Temp. Feuchte Inne Feuchte Auss Sonnenschein Luftdruck Regen ab 0,1 Wind Sonnenschein T Regendauer Windben
14.12.2011 00:00 13,8 C 7,2 C 0,0 UV-I 0,0 C 52 % 78 % 0 % 999,8 hPa 0,0 l/m 10,4 km/h (2 Bft) 0 min 0 min 10,4 km/h (2 Bft)
14.12.2011 00:02 13,8 C 7,2 C 0,0 UV-I 0,0 C 52 % 78 % 0 % 999,8 hPa 0,0 l/m 10,4 km/h (2 Bft) 0 min 0 min 12,4 km/h (3 Bft)
14.12.2011 00:04 13,6 C 7,3 C 0,0 UV-I 0,0 C 52 % 78 % 0 % 999,9 hPa 0,0 l/m 10,4 km/h (2 Bft) 0 min 0 min 6,0 km/h (2 Bft)
14.12.2011 00:06 13,6 C 7,3 C 0,0 UV-I 0,0 C 52 % 78 % 0 % 999,9 hPa 0,0 l/m 10,4 km/h (2 Bft) 0 min 0 min 21,3 km/h (4 Bft)
14.12.2011 00:08 13,6 C 7,2 C 0,0 UV-I 0,0 C 52 % 78 % 0 % 999,9 hPa 0,0 l/m 10,0 km/h (2 Bft) 0 min 0 min 21,3 km/h (4 Bft)
14.12.2011 00:10 13,6 C 7,3 C 0,0 UV-I 0,0 C 52 % 78 % 0 % 999,9 hPa 0,0 l/m 10,0 km/h (2 Bft) 0 min 0 min 10,0 km/h (2 Bft)
14.12.2011 00:12 13,6 C 7,3 C 0,0 UV-I 0,0 C 52 % 78 % 0 % 999,9 hPa 0,0 l/m 10,4 km/h (2 Bft) 0 min 0 min 12,0 km/h (2 Bft)
14.12.2011 00:14 13,6 C 7,2 C 0,0 UV-I 0,0 C 52 % 78 % 0 % 999,9 hPa 0,0 l/m 10,0 km/h (2 Bft) 0 min 0 min 12,0 km/h (2 Bft)
14.12.2011 00:16 13,6 C 7,2 C 0,0 UV-I 0,0 C 52 % 78 % 0 % 999,9 hPa 0,0 l/m 10,0 km/h (2 Bft) 0 min 0 min 7,6 km/h (2 Bft)
14.12.2011 00:18 13,6 C 7,2 C 0,0 UV-I 0,0 C 52 % 78 % 0 % 999,9 hPa 0,0 l/m 9,2 km/h (2 Bft) 0 min 0 min 7,6 km/h (2 Bft)
14.12.2011 00:20 13,6 C 7,1 C 0,0 UV-I 0,0 C 52 % 78 % 0 % 999,9 hPa 0,0 l/m 8,4 km/h (2 Bft) 0 min 0 min 8,8 km/h (2 Bft)
14.12.2011 00:22 13,7 C 7,1 C 0,0 UV-I 0,0 C 52 % 78 % 0 % 999,9 hPa 0,0 l/m 8,0 km/h (2 Bft) 0 min 0 min 8,8 km/h (2 Bft)
14.12.2011 00:24 13,6 C 7,1 C 0,0 UV-I 0,0 C 52 % 78 % 0 % 999,8 hPa 0,0 l/m 6,8 km/h (2 Bft) 0 min 0 min 7,2 km/h (2 Bft)
14.12.2011 00:26 13,7 C 7,0 C 0,0 UV-I 0,0 C 52 % 78 % 0 % 999,8 hPa 0,0 l/m 7,2 km/h (2 Bft) 0 min 0 min 14,5 km/h (3 Bft)
14.12.2011 00:28 13,7 C 7,1 C 0,0 UV-I 0,0 C 52 % 78 % 0 % 999,8 hPa 0,0 l/m 7,6 km/h (2 Bft) 0 min 0 min 18,5 km/h (3 Bft)
14.12.2011 00:30 13,7 C 7,1 C 0,0 UV-I 0,0 C 52 % 78 % 0 % 999,8 hPa 0,0 l/m 8,0 km/h (2 Bft) 0 min 0 min 18,5 km/h (3 Bft)
14.12.2011 00:32 13,7 C 7,1 C 0,0 UV-I 0,0 C 52 % 78 % 0 % 999,8 hPa 0,0 l/m 8,8 km/h (2 Bft) 0 min 0 min 12,4 km/h (3 Bft)
14.12.2011 00:34 13,6 C 7,1 C 0,0 UV-I 0,0 C 52 % 78 % 0 % 999,8 hPa 0,0 l/m 9,2 km/h (2 Bft) 0 min 0 min 11,6 km/h (2 Bft)
14.12.2011 00:36 13,6 C 7,0 C 0,0 UV-I 0,0 C 52 % 78 % 0 % 999,8 hPa 0,0 l/m 10,0 km/h (2 Bft) 0 min 0 min 12,0 km/h (2 Bft)
14.12.2011 00:38 13,7 C 7,0 C 0,0 UV-I 0,0 C 52 % 78 % 0 % 999,8 hPa 0,0 l/m 9,2 km/h (2 Bft) 0 min 0 min 12,0 km/h (2 Bft)
14.12.2011 00:40 13,7 C 6,9 C 0,0 UV-I 0,0 C 52 % 79 % 0 % 999,8 hPa 0,0 l/m 8,8 km/h (2 Bft) 0 min 0 min 10,4 km/h (2 Bft)
14.12.2011 00:42 13,7 C 6,9 C 0,0 UV-I 0,0 C 52 % 79 % 0 % 999,8 hPa 0,0 l/m 8,0 km/h (2 Bft) 0 min 0 min 10,4 km/h (2 Bft)
14.12.2011 00:44 13,7 C 6,9 C 0,0 UV-I 0,0 C 52 % 79 % 0 % 999,9 hPa 0,0 l/m 7,6 km/h (2 Bft) 0 min 0 min 10,0 km/h (2 Bft)
14.12.2011 00:46 13,7 C 6,9 C 0,0 UV-I 0,0 C 53 % 79 % 0 % 999,9 hPa 0,0 l/m 7,2 km/h (2 Bft) 0 min 0 min 13,7 km/h (3 Bft)
14.12.2011 00:48 13,6 C 6,9 C 0,0 UV-I 0,0 C 53 % 79 % 0 % 999,9 hPa 0,0 l/m 7,2 km/h (2 Bft) 0 min 0 min 13,7 km/h (3 Bft)
14.12.2011 00:50 13,6 C 6,9 C 0,0 UV-I 0,0 C 53 % 79 % 0 % 999,9 hPa 0,0 l/m 6,8 km/h (2 Bft) 0 min 0 min 11,2 km/h (2 Bft)
14.12.2011 00:52 13,7 C 6,8 C 0,0 UV-I 0,0 C 53 % 79 % 0 % 999,9 hPa 0,0 l/m 6,8 km/h (2 Bft) 0 min 0 min 11,2 km/h (2 Bft)
14.12.2011 00:54 13,6 C 6,8 C 0,0 UV-I 0,0 C 52 % 79 % 0 % 999,9 hPa 0,0 l/m 7,2 km/h (2 Bft) 0 min 0 min 18,1 km/h (3 Bft)
14.12.2011 00:56 13,7 C 6,8 C 0,0 UV-I 0,0 C 53 % 79 % 0 % 999,9 hPa 0,0 l/m 6,8 km/h (2 Bft) 0 min 0 min 18,1 km/h (3 Bft)
14.12.2011 00:58 13,7 C 6,8 C 0,0 UV-I 0,0 C 53 % 79 % 0 % 999,9 hPa 0,0 l/m 7,6 km/h (2 Bft) 0 min 0 min 14,5 km/h (3 Bft)
14.12.2011 01:00 13,6 C 6,9 C 0,0 UV-I 0,0 C 53 % 79 % 0 % 999,9 hPa 0,0 l/m 8,0 km/h (2 Bft) 0 min 0 min 23,7 km/h (4 Bft)
14.12.2011 01:02 13,6 C 6,9 C 0,0 UV-I 0,0 C 53 % 79 % 0 % 999,9 hPa 0,0 l/m 8,4 km/h (2 Bft) 0 min 0 min 23,7 km/h (4 Bft)
14.12.2011 01:04 13,6 C 7,0 C 0,0 UV-I 0,0 C 53 % 79 % 0 % 1000,2 hPa 0,0 l/m 9,2 km/h (2 Bft) 0 min 0 min 14,9 km/h (3 Bft)
14.12.2011 01:06 13,6 C 7,0 C 0,0 UV-I 0,0 C 53 % 79 % 0 % 1000,2 hPa 0,0 l/m 9,2 km/h (2 Bft) 0 min 0 min 8,8 km/h (2 Bft)
14.12.2011 01:08 13,6 C 7,1 C 0,0 UV-I 0,0 C 53 % 79 % 0 % 1000,2 hPa 0,0 l/m 8,8 km/h (2 Bft) 0 min 0 min 12,0 km/h (2 Bft)
14.12.2011 01:10 13,6 C 7,1 C 0,0 UV-I 0,0 C 53 % 79 % 0 % 1000,2 hPa 0,0 l/m 8,8 km/h (2 Bft) 0 min 0 min 13,7 km/h (3 Bft)
14.12.2011 01:12 13,6 C 7,1 C 0,0 UV-I 0,0 C 53 % 79 % 0 % 1000,2 hPa 0,0 l/m 9,2 km/h (2 Bft) 0 min 0 min 13,7 km/h (3 Bft)
14.12.2011 01:14 13,6 C 7,1 C 0,0 UV-I 0,0 C 52 % 79 % 0 % 1000,2 hPa 0,0 l/m 9,2 km/h (2 Bft) 0 min 0 min 16,1 km/h (3 Bft)
14.12.2011 01:16 13,6 C 7,1 C 0,0 UV-I 0,0 C 52 % 79 % 0 % 1000,2 hPa 0,0 l/m 10,4 km/h (2 Bft) 0 min 0 min 23,3 km/h (4 Bft)
14.12.2011 01:18 13,6 C 7,1 C 0,0 UV-I 0,0 C 53 % 79 % 0 % 1000,2 hPa 0,0 l/m 10,4 km/h (2 Bft) 0 min 0 min 23,3 km/h (4 Bft)
14.12.2011 01:20 13,6 C 7,0 C 0,0 UV-I 0,0 C 52 % 79 % 0 % 1000,2 hPa 0,0 l/m 10,4 km/h (2 Bft) 0 min 0 min 16,5 km/h (3 Bft)
14.12.2011 01:22 13,6 C 7,1 C 0,0 UV-I 0,0 C 52 % 79 % 0 % 1000,2 hPa 0,0 l/m 11,2 km/h (2 Bft) 0 min 0 min 30,1 km/h (5 Bft)
14.12.2011 01:24 13,6 C 7,1 C 0,0 UV-I 0,0 C 53 % 79 % 0 % 1000,6 hPa 0,0 l/m 10,8 km/h (2 Bft) 0 min 0 min 14,1 km/h (3 Bft)
14.12.2011 01:26 13,6 C 7,0 C 0,0 UV-I 0,0 C 53 % 79 % 0 % 1000,6 hPa 0,0 l/m 10,8 km/h (2 Bft) 0 min 0 min 16,9 km/h (3 Bft)
14.12.2011 01:28 13,6 C 7,1 C 0,0 UV-I 0,0 C 52 % 79 % 0 % 1000,6 hPa 0,0 l/m 10,0 km/h (2 Bft) 0 min 0 min 16,9 km/h (3 Bft)
14.12.2011 01:30 13,6 C 7,1 C 0,0 UV-I 0,0 C 52 % 79 % 0 % 1000,6 hPa 0,0 l/m 10,4 km/h (2 Bft) 0 min 0 min 12,0 km/h (2 Bft)
14.12.2011 01:32 13,6 C 6,9 C 0,0 UV-I 0,0 C 53 % 78 % 0 % 1000,6 hPa 0,0 l/m 9,6 km/h (2 Bft) 0 min 0 min 16,9 km/h (3 Bft)
14.12.2011 01:34 13,6 C 6,9 C 0,0 UV-I 0,0 C 52 % 78 % 0 % 1000,6 hPa 0,0 l/m 9,2 km/h (2 Bft) 0 min 0 min 16,9 km/h (3 Bft)
14.12.2011 01:36 13,6 C 6,9 C 0,0 UV-I 0,0 C 52 % 78 % 0 % 1000,6 hPa 0,0 l/m 8,4 km/h (2 Bft) 0 min 0 min 16,1 km/h (3 Bft)
14.12.2011 01:38 13,6 C 6,9 C 0,0 UV-I 0,0 C 52 % 78 % 0 % 1000,6 hPa 0,0 l/m 8,4 km/h (2 Bft) 0 min 0 min 19,7 km/h (3 Bft)
14.12.2011 01:40 13,6 C 6,9 C 0,0 UV-I 0,0 C 52 % 78 % 0 % 1000,6 hPa 0,0 l/m 8,8 km/h (2 Bft) 0 min 0 min 19,7 km/h (3 Bft)
14.12.2011 01:42 13,6 C 6,9 C 0,0 UV-I 0,0 C 52 % 78 % 0 % 1000,6 hPa 0,0 l/m 9,6 km/h (2 Bft) 0 min 0 min 24,9 km/h (4 Bft)
14.12.2011 01:44 13,6 C 6,9 C 0,0 UV-I 0,0 C 52 % 78 % 0 % 1000,2 hPa 0,0 l/m 9,2 km/h (2 Bft) 0 min 0 min 24,9 km/h (4 Bft)
14.12.2011 01:46 13,6 C 6,9 C 0,0 UV-I 0,0 C 52 % 78 % 0 % 1000,2 hPa 0,0 l/m 8,4 km/h (2 Bft) 0 min 0 min 8,0 km/h (2 Bft)
14.12.2011 01:48 13,6 C 6,9 C 0,0 UV-I 0,0 C 52 % 78 % 0 % 1000,2 hPa 0,0 l/m 8,0 km/h (2 Bft) 0 min 0 min 11,2 km/h (2 Bft)
14.12.2011 01:50 13,6 C 6,8 C 0,0 UV-I 0,0 C 52 % 78 % 0 % 1000,2 hPa 0,0 l/m 6,8 km/h (2 Bft) 0 min 0 min 11,2 km/h (2 Bft)
14.12.2011 01:52 13,6 C 6,8 C 0,0 UV-I 0,0 C 52 % 78 % 0 % 1000,2 hPa 0,0 l/m 6,4 km/h (2 Bft) 0 min 0 min 21,3 km/h (4 Bft)
14.12.2011 01:54 13,6 C 6,9 C 0,0 UV-I 0,0 C 52 % 78 % 0 % 1000,2 hPa 0,0 l/m 6,4 km/h (2 Bft) 0 min 0 min 21,3 km/h (4 Bft)
14.12.2011 01:56 13,6 C 6,8 C 0,0 UV-I 0,0 C 52 % 78 % 0 % 1000,2 hPa 0,0 l/m 6,4 km/h (2 Bft) 0 min 0 min 14,9 km/h (3 Bft)
14.12.2011 01:58 13,6 C 6,8 C 0,0 UV-I 0,0 C 52 % 78 % 0 % 1000,2 hPa 0,0 l/m 6,4 km/h (2 Bft) 0 min 0 min 10,4 km/h (2 Bft)
14.12.2011 02:00 13,6 C 6,8 C 0,0 UV-I 0,0 C 52 % 78 % 0 % 1000,2 hPa 0,0 l/m 6,4 km/h (2 Bft) 0 min 0 min 10,4 km/h (2 Bft)
14.12.2011 02:02 13,6 C 6,7 C 0,0 UV-I 0,0 C 52 % 78 % 0 % 1000,2 hPa 0,0 l/m 7,2 km/h (2 Bft) 0 min 0 min 20,5 km/h (4 Bft)
14.12.2011 02:04 13,6 C 6,7 C 0,0 UV-I 0,0 C 52 % 78 % 0 % 1000,1 hPa 0,0 l/m 7,6 km/h (2 Bft) 0 min 0 min 20,5 km/h (4 Bft)
14.12.2011 02:06 13,6 C 6,8 C 0,0 UV-I 0,0 C 52 % 78 % 0 % 1000,1 hPa 0,0 l/m 7,2 km/h (2 Bft) 0 min 0 min 9,2 km/h (2 Bft)
14.12.2011 02:08 13,6 C 6,7 C 0,0 UV-I 0,0 C 52 % 78 % 0 % 1000,1 hPa 0,0 l/m 7,6 km/h (2 Bft) 0 min 0 min 12,4 km/h (3 Bft)
14.12.2011 02:10 13,6 C 6,7 C 0,0 UV-I 0,0 C 52 % 78 % 0 % 1000,1 hPa 0,0 l/m 8,0 km/h (2 Bft) 0 min 0 min 12,4 km/h (3 Bft)
14.12.2011 02:12 13,6 C 6,7 C 0,0 UV-I 0,0 C 52 % 78 % 0 % 1000,1 hPa 0,0 l/m 7,6 km/h (2 Bft) 0 min 0 min 12,4 km/h (3 Bft)
14.12.2011 02:14 13,6 C 6,7 C 0,0 UV-I 0,0 C 52 % 78 % 0 % 1000,1 hPa 0,0 l/m 7,6 km/h (2 Bft) 0 min 0 min 12,4 km/h (3 Bft)
14.12.2011 02:16 13,6 C 6,7 C 0,0 UV-I 0,0 C 52 % 78 % 0 % 1000,1 hPa 0,0 l/m 7,6 km/h (2 Bft) 0 min 0 min 13,3 km/h (3 Bft)
14.12.2011 02:18 13,6 C 6,7 C 0,0 UV-I 0,0 C 52 % 78 % 0 % 1000,1 hPa 0,0 l/m 8,0 km/h (2 Bft) 0 min 0 min 22,1 km/h (4 Bft)
14.12.2011 02:20 13,6 C 6,7 C 0,0 UV-I 0,0 C 52 % 78 % 0 % 1000,1 hPa 0,0 l/m 8,4 km/h (2 Bft) 0 min 0 min 22,1 km/h (4 Bft)
14.12.2011 02:22 13,6 C 6,7 C 0,0 UV-I 0,0 C 52 % 78 % 0 % 1000,1 hPa 0,0 l/m 7,6 km/h (2 Bft) 0 min 0 min 8,0 km/h (2 Bft)
14.12.2011 02:24 13,6 C 6,6 C 0,0 UV-I 0,0 C 52 % 78 % 0 % 1000,1 hPa 0,0 l/m 8,0 km/h (2 Bft) 0 min 0 min 10,4 km/h (2 Bft)
14.12.2011 02:26 13,6 C 6,6 C 0,0 UV-I 0,0 C 52 % 78 % 0 % 1000,1 hPa 0,0 l/m 7,6 km/h (2 Bft) 0 min 0 min 10,4 km/h (2 Bft)
14.12.2011 02:28 13,6 C 6,7 C 0,0 UV-I 0,0 C 52 % 78 % 0 % 1000,1 hPa 0,0 l/m 8,0 km/h (2 Bft) 0 min 0 min 18,9 km/h (3 Bft)
14.12.2011 02:30 13,6 C 6,7 C 0,0 UV-I 0,0 C 52 % 78 % 0 % 1000,1 hPa 0,0 l/m 7,2 km/h (2 Bft) 0 min 0 min 19,3 km/h (3 Bft)
14.12.2011 02:32 13,6 C 6,7 C 0,0 UV-I 0,0 C 52 % 78 % 0 % 1000,1 hPa 0,0 l/m 7,6 km/h (2 Bft) 0 min 0 min 19,3 km/h (3 Bft)
14.12.2011 02:34 13,6 C 6,5 C 0,0 UV-I 0,0 C 52 % 78 % 0 % 1000,1 hPa 0,0 l/m 7,2 km/h (2 Bft) 0 min 0 min 12,8 km/h (3 Bft)
14.12.2011 02:36 13,6 C 6,6 C 0,0 UV-I 0,0 C 52 % 78 % 0 % 1000,1 hPa 0,0 l/m 6,8 km/h (2 Bft) 0 min 0 min 10,8 km/h (2 Bft)
14.12.2011 02:38 13,6 C 6,5 C 0,0 UV-I 0,0 C 52 % 78 % 0 % 1000,1 hPa 0,0 l/m 7,6 km/h (2 Bft) 0 min 0 min 10,8 km/h (2 Bft)
14.12.2011 02:40 13,6 C 6,6 C 0,0 UV-I 0,0 C 52 % 78 % 0 % 1000,1 hPa 0,0 l/m 8,0 km/h (2 Bft) 0 min 0 min 9,6 km/h (2 Bft)
14.12.2011 02:42 13,6 C 6,6 C 0,0 UV-I 0,0 C 52 % 78 % 0 % 1000,1 hPa 0,0 l/m 7,2 km/h (2 Bft) 0 min 0 min 7,6 km/h (2 Bft)
14.12.2011 02:44 13,6 C 6,6 C 0,0 UV-I 0,0 C 52 % 78 % 0 % 999,9 hPa 0,0 l/m 7,2 km/h (2 Bft) 0 min 0 min 14,1 km/h (3 Bft)
14.12.2011 02:46 13,6 C 6,6 C 0,0 UV-I 0,0 C 52 % 78 % 0 % 999,9 hPa 0,0 l/m 8,4 km/h (2 Bft) 0 min 0 min 14,1 km/h (3 Bft)
14.12.2011 02:48 13,6 C 6,6 C 0,0 UV-I 0,0 C 52 % 78 % 0 % 999,9 hPa 0,0 l/m 7,6 km/h (2 Bft) 0 min 0 min 12,0 km/h (2 Bft)
14.12.2011 02:50 13,6 C 6,5 C 0,0 UV-I 0,0 C 52 % 78 % 0 % 999,9 hPa 0,0 l/m 6,8 km/h (2 Bft) 0 min 0 min 9,6 km/h (2 Bft)
14.12.2011 02:52 13,6 C 6,5 C 0,0 UV-I 0,0 C 52 % 78 % 0 % 999,9 hPa 0,0 l/m 6,4 km/h (2 Bft) 0 min 0 min 11,6 km/h (2 Bft)
14.12.2011 02:54 13,6 C 6,5 C 0,0 UV-I 0,0 C 52 % 78 % 0 % 999,9 hPa 0,0 l/m 7,2 km/h (2 Bft) 0 min 0 min 16,5 km/h (3 Bft)
14.12.2011 02:56 13,6 C 6,5 C 0,0 UV-I 0,0 C 52 % 78 % 0 % 999,9 hPa 0,0 l/m 6,8 km/h (2 Bft) 0 min 0 min 17,7 km/h (3 Bft)
14.12.2011 02:58 13,6 C 6,6 C 0,0 UV-I 0,0 C 52 % 78 % 0 % 999,9 hPa 0,0 l/m 6,8 km/h (2 Bft) 0 min 0 min 17,7 km/h (3 Bft)
14.12.2011 03:00 13,6 C 6,5 C 0,0 UV-I 0,0 C 52 % 78 % 0 % 999,9 hPa 0,0 l/m 7,6 km/h (2 Bft) 0 min 0 min 10,8 km/h (2 Bft)
14.12.2011 03:02 13,6 C 6,7 C 0,0 UV-I 0,0 C 52 % 78 % 0 % 999,9 hPa 0,0 l/m 7,6 km/h (2 Bft) 0 min 0 min 10,8 km/h (2 Bft)
14.12.2011 03:04 13,6 C 6,7 C 0,0 UV-I 0,0 C 52 % 77 % 0 % 999,4 hPa 0,0 l/m 7,6 km/h (2 Bft) 0 min 0 min 8,0 km/h (2 Bft)
14.12.2011 03:06 13,6 C 6,7 C 0,0 UV-I 0,0 C 52 % 77 % 0 % 999,4 hPa 0,0 l/m 7,6 km/h (2 Bft) 0 min 0 min 11,2 km/h (2 Bft)
14.12.2011 03:08 13,6 C 6,7 C 0,0 UV-I 0,0 C 52 % 77 % 0 % 999,4 hPa 0,0 l/m 6,8 km/h (2 Bft) 0 min 0 min 11,2 km/h (2 Bft)
14.12.2011 03:10 13,6 C 6,7 C 0,0 UV-I 0,0 C 52 % 77 % 0 % 999,4 hPa 0,0 l/m 6,4 km/h (2 Bft) 0 min 0 min 7,2 km/h (2 Bft)
14.12.2011 03:12 13,6 C 6,7 C 0,0 UV-I 0,0 C 52 % 77 % 0 % 999,4 hPa 0,0 l/m 6,0 km/h (2 Bft) 0 min 0 min 13,7 km/h (3 Bft)
14.12.2011 03:14 13,6 C 6,7 C 0,0 UV-I 0,0 C 52 % 77 % 0 % 999,4 hPa 0,0 l/m 6,8 km/h (2 Bft) 0 min 0 min 13,7 km/h (3 Bft)
14.12.2011 03:16 13,6 C 6,7 C 0,0 UV-I 0,0 C 52 % 77 % 0 % 999,4 hPa 0,0 l/m 7,6 km/h (2 Bft) 0 min 0 min 12,8 km/h (3 Bft)
14.12.2011 03:18 13,6 C 6,7 C 0,0 UV-I 0,0 C 52 % 77 % 0 % 999,4 hPa 0,0 l/m 8,0 km/h (2 Bft) 0 min 0 min 8,4 km/h (2 Bft)
14.12.2011 03:20 13,6 C 6,6 C 0,0 UV-I 0,0 C 52 % 77 % 0 % 999,4 hPa 0,0 l/m 7,6 km/h (2 Bft) 0 min 0 min 7,6 km/h (2 Bft)
14.12.2011 03:22 13,6 C 6,7 C 0,0 UV-I 0,0 C 52 % 77 % 0 % 999,4 hPa 0,0 l/m 8,0 km/h (2 Bft) 0 min 0 min 9,6 km/h (2 Bft)
14.12.2011 03:24 13,6 C 6,7 C 0,0 UV-I 0,0 C 52 % 77 % 0 % 999,3 hPa 0,0 l/m 8,0 km/h (2 Bft) 0 min 0 min 10,8 km/h (2 Bft)
14.12.2011 03:26 13,6 C 6,6 C 0,0 UV-I 0,0 C 52 % 77 % 0 % 999,3 hPa 0,0 l/m 6,8 km/h (2 Bft) 0 min 0 min 12,4 km/h (3 Bft)
14.12.2011 03:28 13,6 C 6,6 C 0,0 UV-I 0,0 C 52 % 77 % 0 % 999,3 hPa 0,0 l/m 6,4 km/h (2 Bft) 0 min 0 min 12,4 km/h (3 Bft)
14.12.2011 03:30 13,6 C 6,7 C 0,0 UV-I 0,0 C 52 % 77 % 0 % 999,3 hPa 0,0 l/m 7,2 km/h (2 Bft) 0 min 0 min 24,5 km/h (4 Bft)
14.12.2011 03:32 13,6 C 6,7 C 0,0 UV-I 0,0 C 52 % 77 % 0 % 999,3 hPa 0,0 l/m 7,6 km/h (2 Bft) 0 min 0 min 24,5 km/h (4 Bft)
14.12.2011 03:34 13,6 C 6,7 C 0,0 UV-I 0,0 C 52 % 77 % 0 % 999,3 hPa 0,0 l/m 7,2 km/h (2 Bft) 0 min 0 min 8,8 km/h (2 Bft)
14.12.2011 03:36 13,6 C 6,7 C 0,0 UV-I 0,0 C 52 % 77 % 0 % 999,3 hPa 0,0 l/m 6,8 km/h (2 Bft) 0 min 0 min 8,4 km/h (2 Bft)
14.12.2011 03:38 13,6 C 6,7 C 0,0 UV-I 0,0 C 52 % 77 % 0 % 999,3 hPa 0,0 l/m 7,2 km/h (2 Bft) 0 min 0 min 14,9 km/h (3 Bft)
14.12.2011 03:40 13,6 C 6,6 C 0,0 UV-I 0,0 C 52 % 77 % 0 % 999,3 hPa 0,0 l/m 6,8 km/h (2 Bft) 0 min 0 min 14,9 km/h (3 Bft)
14.12.2011 03:42 13,6 C 6,6 C 0,0 UV-I 0,0 C 52 % 77 % 0 % 999,3 hPa 0,0 l/m 6,0 km/h (2 Bft) 0 min 0 min 7,6 km/h (2 Bft)
14.12.2011 03:44 13,6 C 6,5 C 0,0 UV-I 0,0 C 52 % 77 % 0 % 998,8 hPa 0,0 l/m 6,4 km/h (2 Bft) 0 min 0 min 24,5 km/h (4 Bft)
14.12.2011 03:46 13,6 C 6,6 C 0,0 UV-I 0,0 C 52 % 77 % 0 % 998,8 hPa 0,0 l/m 7,2 km/h (2 Bft) 0 min 0 min 29,3 km/h (5 Bft)
14.12.2011 03:48 13,6 C 6,7 C 0,0 UV-I 0,0 C 52 % 77 % 0 % 998,8 hPa 0,0 l/m 8,4 km/h (2 Bft) 0 min 0 min 29,3 km/h (5 Bft)
14.12.2011 03:50 13,6 C 6,6 C 0,0 UV-I 0,0 C 52 % 77 % 0 % 998,8 hPa 0,0 l/m 8,0 km/h (2 Bft) 0 min 0 min 12,0 km/h (2 Bft)
14.12.2011 03:52 13,6 C 6,6 C 0,0 UV-I 0,0 C 52 % 77 % 0 % 998,8 hPa 0,0 l/m 7,6 km/h (2 Bft) 0 min 0 min 7,6 km/h (2 Bft)
14.12.2011 03:54 13,6 C 6,7 C 0,0 UV-I 0,0 C 52 % 77 % 0 % 998,8 hPa 0,0 l/m 8,4 km/h (2 Bft) 0 min 0 min 24,5 km/h (4 Bft)
14.12.2011 03:56 13,6 C 6,7 C 0,0 UV-I 0,0 C 52 % 77 % 0 % 998,8 hPa 0,0 l/m 8,0 km/h (2 Bft) 0 min 0 min 24,5 km/h (4 Bft)
14.12.2011 03:58 13,6 C 6,7 C 0,0 UV-I 0,0 C 52 % 77 % 0 % 998,8 hPa 0,0 l/m 7,2 km/h (2 Bft) 0 min 0 min 5,6 km/h (1 Bft)
14.12.2011 04:00 13,6 C 6,7 C 0,0 UV-I 0,0 C 52 % 77 % 0 % 998,8 hPa 0,0 l/m 7,6 km/h (2 Bft) 0 min 0 min 23,7 km/h (4 Bft)
14.12.2011 04:02 13,6 C 6,7 C 0,0 UV-I 0,0 C 52 % 77 % 0 % 998,8 hPa 0,0 l/m 8,4 km/h (2 Bft) 0 min 0 min 23,7 km/h (4 Bft)
14.12.2011 04:04 13,6 C 6,8 C 0,0 UV-I 0,0 C 52 % 77 % 0 % 998,8 hPa 0,0 l/m 9,2 km/h (2 Bft) 0 min 0 min 19,3 km/h (3 Bft)
14.12.2011 04:06 13,6 C 6,8 C 0,0 UV-I 0,0 C 52 % 77 % 0 % 998,8 hPa 0,0 l/m 9,6 km/h (2 Bft) 0 min 0 min 19,3 km/h (3 Bft)
14.12.2011 04:08 13,6 C 6,8 C 0,0 UV-I 0,0 C 51 % 77 % 0 % 998,8 hPa 0,0 l/m 10,0 km/h (2 Bft) 0 min 0 min 14,5 km/h (3 Bft)
14.12.2011 04:10 13,6 C 6,9 C 0,0 UV-I 0,0 C 52 % 77 % 0 % 998,8 hPa 0,0 l/m 10,4 km/h (2 Bft) 0 min 0 min 11,6 km/h (2 Bft)
14.12.2011 04:12 13,6 C 6,8 C 0,0 UV-I 0,0 C 52 % 77 % 0 % 998,8 hPa 0,0 l/m 10,4 km/h (2 Bft) 0 min 0 min 12,4 km/h (3 Bft)
14.12.2011 04:14 13,6 C 6,8 C 0,0 UV-I 0,0 C 51 % 77 % 0 % 998,8 hPa 0,0 l/m 10,0 km/h (2 Bft) 0 min 0 min 12,4 km/h (3 Bft)
14.12.2011 04:16 13,6 C 6,8 C 0,0 UV-I 0,0 C 52 % 77 % 0 % 998,8 hPa 0,0 l/m 9,6 km/h (2 Bft) 0 min 0 min 20,9 km/h (4 Bft)
14.12.2011 04:18 13,6 C 6,8 C 0,0 UV-I 0,0 C 52 % 77 % 0 % 998,8 hPa 0,0 l/m 8,4 km/h (2 Bft) 0 min 0 min 20,9 km/h (4 Bft)
14.12.2011 04:20 13,6 C 6,8 C 0,0 UV-I 0,0 C 51 % 77 % 0 % 998,8 hPa 0,0 l/m 8,0 km/h (2 Bft) 0 min 0 min 14,5 km/h (3 Bft)
14.12.2011 04:22 13,6 C 6,8 C 0,0 UV-I 0,0 C 51 % 77 % 0 % 998,8 hPa 0,0 l/m 8,0 km/h (2 Bft) 0 min 0 min 14,5 km/h (3 Bft)
14.12.2011 04:24 13,6 C 6,8 C 0,0 UV-I 0,0 C 51 % 77 % 0 % 998,4 hPa 0,0 l/m 8,0 km/h (2 Bft) 0 min 0 min 11,6 km/h (2 Bft)
14.12.2011 04:26 13,6 C 6,8 C 0,0 UV-I 0,0 C 51 % 77 % 0 % 998,4 hPa 0,0 l/m 8,0 km/h (2 Bft) 0 min 0 min 11,6 km/h (2 Bft)
14.12.2011 04:28 13,6 C 6,8 C 0,0 UV-I 0,0 C 51 % 77 % 0 % 998,4 hPa 0,0 l/m 7,6 km/h (2 Bft) 0 min 0 min 13,7 km/h (3 Bft)
14.12.2011 04:30 13,6 C 6,9 C 0,0 UV-I 0,0 C 52 % 77 % 0 % 998,4 hPa 0,0 l/m 7,2 km/h (2 Bft) 0 min 0 min 13,7 km/h (3 Bft)
14.12.2011 04:32 13,6 C 6,8 C 0,0 UV-I 0,0 C 51 % 77 % 0 % 998,4 hPa 0,0 l/m 7,2 km/h (2 Bft) 0 min 0 min 6,8 km/h (2 Bft)
14.12.2011 04:34 13,6 C 6,8 C 0,0 UV-I 0,0 C 52 % 77 % 0 % 998,4 hPa 0,0 l/m 6,4 km/h (2 Bft) 0 min 0 min 8,0 km/h (2 Bft)
14.12.2011 04:36 13,6 C 6,8 C 0,0 UV-I 0,0 C 52 % 77 % 0 % 998,4 hPa 0,0 l/m 6,0 km/h (2 Bft) 0 min 0 min 13,7 km/h (3 Bft)
14.12.2011 04:38 13,6 C 6,7 C 0,0 UV-I 0,0 C 52 % 77 % 0 % 998,4 hPa 0,0 l/m 6,4 km/h (2 Bft) 0 min 0 min 13,7 km/h (3 Bft)
14.12.2011 04:40 13,6 C 6,7 C 0,0 UV-I 0,0 C 52 % 77 % 0 % 998,4 hPa 0,0 l/m 5,6 km/h (1 Bft) 0 min 0 min 12,0 km/h (2 Bft)
14.12.2011 04:42 13,6 C 6,7 C 0,0 UV-I 0,0 C 52 % 77 % 0 % 998,4 hPa 0,0 l/m 6,0 km/h (2 Bft) 0 min 0 min 11,6 km/h (2 Bft)
14.12.2011 04:44 13,6 C 6,7 C 0,0 UV-I 0,0 C 52 % 77 % 0 % 997,9 hPa 0,0 l/m 6,0 km/h (2 Bft) 0 min 0 min 11,6 km/h (2 Bft)
14.12.2011 04:46 13,6 C 6,6 C 0,0 UV-I 0,0 C 52 % 77 % 0 % 997,9 hPa 0,0 l/m 6,8 km/h (2 Bft) 0 min 0 min 6,4 km/h (2 Bft)
14.12.2011 04:48 13,6 C 6,7 C 0,0 UV-I 0,0 C 52 % 78 % 0 % 997,9 hPa 0,0 l/m 6,4 km/h (2 Bft) 0 min 0 min 11,2 km/h (2 Bft)
14.12.2011 04:50 13,6 C 6,7 C 0,0 UV-I 0,0 C 52 % 78 % 0 % 997,9 hPa 0,0 l/m 6,4 km/h (2 Bft) 0 min 0 min 11,2 km/h (2 Bft)
14.12.2011 04:52 13,6 C 6,6 C 0,0 UV-I 0,0 C 52 % 78 % 0 % 997,9 hPa 0,0 l/m 7,2 km/h (2 Bft) 0 min 0 min 23,7 km/h (4 Bft)
14.12.2011 04:54 13,6 C 6,5 C 0,0 UV-I 0,0 C 52 % 78 % 0 % 997,9 hPa 0,0 l/m 7,2 km/h (2 Bft) 0 min 0 min 23,7 km/h (4 Bft)
14.12.2011 04:56 13,6 C 6,5 C 0,0 UV-I 0,0 C 52 % 78 % 0 % 997,9 hPa 0,0 l/m 6,4 km/h (2 Bft) 0 min 0 min 6,8 km/h (2 Bft)
14.12.2011 04:58 13,6 C 6,5 C 0,0 UV-I 0,0 C 52 % 78 % 0 % 997,9 hPa 0,0 l/m 7,2 km/h (2 Bft) 0 min 0 min 13,7 km/h (3 Bft)
14.12.2011 05:00 13,7 C 6,5 C 0,0 UV-I 0,0 C 52 % 78 % 0 % 997,9 hPa 0,0 l/m 7,6 km/h (2 Bft) 0 min 0 min 13,7 km/h (3 Bft)
14.12.2011 05:02 13,6 C 6,5 C 0,0 UV-I 0,0 C 52 % 78 % 0 % 997,9 hPa 0,0 l/m 8,8 km/h (2 Bft) 0 min 0 min 8,0 km/h (2 Bft)
14.12.2011 05:04 13,7 C 6,4 C 0,0 UV-I 0,0 C 52 % 79 % 0 % 997,6 hPa 0,0 l/m 8,0 km/h (2 Bft) 0 min 0 min 7,6 km/h (2 Bft)
14.12.2011 05:06 13,7 C 6,4 C 0,0 UV-I 0,0 C 52 % 79 % 0 % 997,6 hPa 0,0 l/m 8,8 km/h (2 Bft) 0 min 0 min 17,3 km/h (3 Bft)
14.12.2011 05:08 13,6 C 6,4 C 0,0 UV-I 0,0 C 52 % 79 % 0 % 997,6 hPa 0,0 l/m 8,8 km/h (2 Bft) 0 min 0 min 17,3 km/h (3 Bft)
14.12.2011 05:10 13,7 C 6,5 C 0,0 UV-I 0,0 C 52 % 79 % 0 % 997,6 hPa 0,0 l/m 8,8 km/h (2 Bft) 0 min 0 min 11,2 km/h (2 Bft)
14.12.2011 05:12 13,7 C 6,5 C 0,0 UV-I 0,0 C 52 % 79 % 0 % 997,6 hPa 0,0 l/m 9,2 km/h (2 Bft) 0 min 0 min 27,7 km/h (4 Bft)
14.12.2011 05:14 13,7 C 6,4 C 0,0 UV-I 0,0 C 52 % 79 % 0 % 997,6 hPa 0,0 l/m 8,4 km/h (2 Bft) 0 min 0 min 27,7 km/h (4 Bft)
14.12.2011 05:16 13,7 C 6,4 C 0,0 UV-I 0,0 C 52 % 79 % 0 % 997,6 hPa 0,0 l/m 8,4 km/h (2 Bft) 0 min 0 min 13,3 km/h (3 Bft)
14.12.2011 05:18 13,6 C 6,4 C 0,0 UV-I 0,0 C 52 % 79 % 0 % 997,6 hPa 0,0 l/m 7,6 km/h (2 Bft) 0 min 0 min 14,5 km/h (3 Bft)
14.12.2011 05:20 13,6 C 6,4 C 0,0 UV-I 0,0 C 52 % 79 % 0 % 997,6 hPa 0,0 l/m 7,6 km/h (2 Bft) 0 min 0 min 14,5 km/h (3 Bft)
14.12.2011 05:22 13,6 C 6,4 C 0,0 UV-I 0,0 C 52 % 79 % 0 % 997,6 hPa 0,0 l/m 7,6 km/h (2 Bft) 0 min 0 min 15,7 km/h (3 Bft)
14.12.2011 05:24 13,6 C 6,5 C 0,0 UV-I 0,0 C 52 % 79 % 0 % 997,1 hPa 0,0 l/m 7,6 km/h (2 Bft) 0 min 0 min 15,7 km/h (3 Bft)
14.12.2011 05:26 13,6 C 6,4 C 0,0 UV-I 0,0 C 52 % 79 % 0 % 997,1 hPa 0,0 l/m 8,0 km/h (2 Bft) 0 min 0 min 16,5 km/h (3 Bft)
14.12.2011 05:28 13,6 C 6,4 C 0,0 UV-I 0,0 C 52 % 79 % 0 % 997,1 hPa 0,0 l/m 8,8 km/h (2 Bft) 0 min 0 min 21,7 km/h (4 Bft)
14.12.2011 05:30 13,6 C 6,4 C 0,0 UV-I 0,0 C 52 % 79 % 0 % 997,1 hPa 0,0 l/m 9,2 km/h (2 Bft) 0 min 0 min 21,7 km/h (4 Bft)
14.12.2011 05:32 13,6 C 6,5 C 0,0 UV-I 0,0 C 52 % 79 % 0 % 997,1 hPa 0,0 l/m 8,0 km/h (2 Bft) 0 min 0 min 33,3 km/h (5 Bft)
14.12.2011 05:34 13,6 C 6,5 C 0,0 UV-I 0,0 C 52 % 79 % 0 % 997,1 hPa 0,0 l/m 7,2 km/h (2 Bft) 0 min 0 min 14,5 km/h (3 Bft)
14.12.2011 05:36 13,6 C 6,5 C 0,0 UV-I 0,0 C 52 % 79 % 0 % 997,1 hPa 0,0 l/m 7,6 km/h (2 Bft) 0 min 0 min 10,0 km/h (2 Bft)
14.12.2011 05:38 13,6 C 6,7 C 0,0 UV-I 0,0 C 52 % 79 % 0 % 997,1 hPa 0,0 l/m 7,2 km/h (2 Bft) 0 min 2 min 10,0 km/h (2 Bft)
14.12.2011 05:40 13,6 C 6,7 C 0,0 UV-I 0,0 C 52 % 79 % 0 % 997,1 hPa 0,0 l/m 6,0 km/h (2 Bft) 0 min 2 min 5,6 km/h (1 Bft)
14.12.2011 05:42 13,6 C 6,7 C 0,0 UV-I 0,0 C 52 % 79 % 0 % 997,1 hPa 0,0 l/m 6,4 km/h (2 Bft) 0 min 2 min 6,4 km/h (2 Bft)
14.12.2011 05:44 13,6 C 6,7 C 0,0 UV-I 0,0 C 52 % 80 % 0 % 996,8 hPa 0,0 l/m 7,2 km/h (2 Bft) 0 min 2 min 6,4 km/h (2 Bft)
14.12.2011 05:46 13,6 C 6,7 C 0,0 UV-I 0,0 C 52 % 80 % 0 % 996,8 hPa 0,0 l/m 7,2 km/h (2 Bft) 0 min 2 min 17,7 km/h (3 Bft)
14.12.2011 05:48 13,8 C 6,7 C 0,0 UV-I 0,0 C 52 % 80 % 0 % 996,8 hPa 0,0 l/m 7,2 km/h (2 Bft) 0 min 2 min 17,7 km/h (3 Bft)
14.12.2011 05:50 13,6 C 6,6 C 0,0 UV-I 0,0 C 52 % 80 % 0 % 996,8 hPa 0,0 l/m 6,4 km/h (2 Bft) 0 min 0 min 5,2 km/h (1 Bft)
14.12.2011 05:52 13,8 C 6,6 C 0,0 UV-I 0,0 C 52 % 80 % 0 % 996,8 hPa 0,0 l/m 6,8 km/h (2 Bft) 0 min 0 min 15,3 km/h (3 Bft)
14.12.2011 05:54 13,6 C 6,5 C 0,0 UV-I 0,0 C 52 % 80 % 0 % 996,8 hPa 0,0 l/m 6,4 km/h (2 Bft) 0 min 2 min 15,3 km/h (3 Bft)
14.12.2011 05:56 13,8 C 6,5 C 0,0 UV-I 0,0 C 52 % 80 % 0 % 996,8 hPa 0,0 l/m 6,0 km/h (2 Bft) 0 min 2 min 7,2 km/h (2 Bft)
14.12.2011 05:58 13,8 C 6,5 C 0,0 UV-I 0,0 C 52 % 80 % 0 % 996,8 hPa 0,0 l/m 5,6 km/h (1 Bft) 0 min 2 min 7,6 km/h (2 Bft)
14.12.2011 06:00 13,8 C 6,5 C 0,0 UV-I 0,0 C 52 % 80 % 0 % 996,8 hPa 0,0 l/m 5,6 km/h (1 Bft) 0 min 2 min 7,6 km/h (2 Bft)
14.12.2011 06:02 13,8 C 6,5 C 0,0 UV-I 0,0 C 52 % 80 % 0 % 996,8 hPa 0,0 l/m 5,2 km/h (1 Bft) 0 min 2 min 5,2 km/h (1 Bft)
14.12.2011 06:04 13,8 C 6,5 C 0,0 UV-I 0,0 C 52 % 80 % 0 % 996,4 hPa 0,0 l/m 3,6 km/h (1 Bft) 0 min 2 min 0,0 km/h (0 Bft)
14.12.2011 06:06 13,8 C 6,4 C 0,0 UV-I 0,0 C 52 % 81 % 0 % 996,4 hPa 0,0 l/m 3,6 km/h (1 Bft) 0 min 2 min 6,0 km/h (2 Bft)
14.12.2011 06:08 13,8 C 6,4 C 0,0 UV-I 0,0 C 52 % 81 % 0 % 996,4 hPa 0,1 l/m 2,8 km/h (1 Bft) 0 min 2 min 7,2 km/h (2 Bft)
14.12.2011 06:10 13,8 C 6,4 C 0,0 UV-I 0,0 C 52 % 81 % 0 % 996,4 hPa 0,0 l/m 2,8 km/h (1 Bft) 0 min 2 min 7,2 km/h (2 Bft)
14.12.2011 06:12 13,8 C 6,4 C 0,0 UV-I 0,0 C 53 % 81 % 0 % 996,4 hPa 0,0 l/m 3,6 km/h (1 Bft) 0 min 2 min 6,0 km/h (2 Bft)
14.12.2011 06:14 13,8 C 6,3 C 0,0 UV-I 0,0 C 53 % 81 % 0 % 996,4 hPa 0,1 l/m 3,6 km/h (1 Bft) 0 min 2 min 7,6 km/h (2 Bft)
14.12.2011 06:16 13,8 C 6,3 C 0,0 UV-I 0,0 C 53 % 81 % 0 % 996,4 hPa 0,0 l/m 4,0 km/h (1 Bft) 0 min 2 min 7,6 km/h (2 Bft)
14.12.2011 06:18 13,8 C 6,2 C 0,0 UV-I 0,0 C 53 % 81 % 0 % 996,4 hPa 0,0 l/m 4,4 km/h (1 Bft) 0 min 2 min 7,6 km/h (2 Bft)
14.12.2011 06:20 13,8 C 6,3 C 0,0 UV-I 0,0 C 53 % 82 % 0 % 996,4 hPa 0,1 l/m 4,4 km/h (1 Bft) 0 min 2 min 7,6 km/h (2 Bft)
14.12.2011 06:22 13,8 C 6,1 C 0,0 UV-I 0,0 C 53 % 82 % 0 % 996,4 hPa 0,0 l/m 4,4 km/h (1 Bft) 0 min 2 min 7,2 km/h (2 Bft)
14.12.2011 06:24 13,8 C 6,1 C 0,0 UV-I 0,0 C 53 % 82 % 0 % 995,2 hPa 0,0 l/m 3,6 km/h (1 Bft) 0 min 2 min 7,2 km/h (2 Bft)
14.12.2011 06:26 13,8 C 6,0 C 0,0 UV-I 0,0 C 53 % 82 % 0 % 995,2 hPa 0,0 l/m 3,2 km/h (1 Bft) 0 min 2 min 6,0 km/h (2 Bft)
14.12.2011 06:28 13,8 C 6,0 C 0,0 UV-I 0,0 C 53 % 82 % 0 % 995,2 hPa 0,0 l/m 2,8 km/h (1 Bft) 0 min 2 min 6,0 km/h (2 Bft)
14.12.2011 06:30 13,8 C 6,1 C 0,0 UV-I 0,0 C 53 % 82 % 0 % 995,2 hPa 0,1 l/m 2,4 km/h (1 Bft) 0 min 2 min 9,2 km/h (2 Bft)
14.12.2011 06:32 13,8 C 6,0 C 0,0 UV-I 0,0 C 53 % 82 % 0 % 995,2 hPa 0,0 l/m 2,0 km/h (1 Bft) 0 min 2 min 9,2 km/h (2 Bft)
14.12.2011 06:34 13,8 C 5,9 C 0,0 UV-I 0,0 C 53 % 83 % 0 % 995,2 hPa 0,0 l/m 2,4 km/h (1 Bft) 0 min 2 min 8,0 km/h (2 Bft)
14.12.2011 06:36 13,8 C 5,9 C 0,0 UV-I 0,0 C 53 % 83 % 0 % 995,2 hPa 0,0 l/m 3,2 km/h (1 Bft) 0 min 0 min 8,0 km/h (2 Bft)
14.12.2011 06:38 13,8 C 5,9 C 0,0 UV-I 0,0 C 53 % 83 % 0 % 995,2 hPa 0,0 l/m 3,6 km/h (1 Bft) 0 min 2 min 6,0 km/h (2 Bft)
14.12.2011 06:40 13,8 C 5,9 C 0,0 UV-I 0,0 C 53 % 83 % 0 % 995,2 hPa 0,0 l/m 4,8 km/h (1 Bft) 0 min 2 min 8,8 km/h (2 Bft)
14.12.2011 06:42 13,8 C 5,8 C 0,0 UV-I 0,0 C 53 % 84 % 0 % 995,2 hPa 0,0 l/m 5,6 km/h (1 Bft) 0 min 2 min 8,8 km/h (2 Bft)
14.12.2011 06:44 13,8 C 5,8 C 0,0 UV-I 0,0 C 53 % 84 % 0 % 994,1 hPa 0,0 l/m 6,0 km/h (2 Bft) 0 min 2 min 7,2 km/h (2 Bft)
14.12.2011 06:46 13,8 C 5,8 C 0,0 UV-I 0,0 C 53 % 84 % 0 % 994,1 hPa 0,0 l/m 5,6 km/h (1 Bft) 0 min 2 min 11,2 km/h (2 Bft)
14.12.2011 06:48 13,9 C 5,8 C 0,0 UV-I 0,0 C 53 % 84 % 0 % 994,1 hPa 0,1 l/m 5,6 km/h (1 Bft) 0 min 2 min 11,2 km/h (2 Bft)
14.12.2011 06:50 13,9 C 5,8 C 0,0 UV-I 0,0 C 53 % 84 % 0 % 994,1 hPa 0,0 l/m 6,8 km/h (2 Bft) 0 min 2 min 11,6 km/h (2 Bft)
14.12.2011 06:52 13,8 C 5,9 C 0,0 UV-I 0,0 C 53 % 84 % 0 % 994,1 hPa 0,0 l/m 6,8 km/h (2 Bft) 0 min 2 min 11,6 km/h (2 Bft)
14.12.2011 06:54 13,9 C 5,9 C 0,0 UV-I 0,0 C 53 % 84 % 0 % 994,1 hPa 0,1 l/m 6,8 km/h (2 Bft) 0 min 2 min 8,4 km/h (2 Bft)
14.12.2011 06:56 13,9 C 5,9 C 0,0 UV-I 0,0 C 53 % 85 % 0 % 994,1 hPa 0,0 l/m 8,0 km/h (2 Bft) 0 min 2 min 8,0 km/h (2 Bft)
14.12.2011 06:58 13,8 C 6,0 C 0,0 UV-I 0,0 C 53 % 85 % 0 % 994,1 hPa 0,1 l/m 8,4 km/h (2 Bft) 0 min 2 min 10,4 km/h (2 Bft)
14.12.2011 07:00 13,8 C 6,0 C 0,0 UV-I 0,0 C 53 % 85 % 0 % 994,1 hPa 0,1 l/m 8,8 km/h (2 Bft) 0 min 2 min 10,4 km/h (2 Bft)
14.12.2011 07:02 13,8 C 6,0 C 0,0 UV-I 0,0 C 53 % 85 % 0 % 994,1 hPa 0,0 l/m 8,8 km/h (2 Bft) 0 min 2 min 18,9 km/h (3 Bft)
14.12.2011 07:04 13,9 C 6,1 C 0,0 UV-I 0,0 C 53 % 86 % 0 % 993,2 hPa 0,0 l/m 9,6 km/h (2 Bft) 0 min 2 min 18,5 km/h (3 Bft)
14.12.2011 07:06 13,9 C 6,0 C 0,0 UV-I 0,0 C 53 % 86 % 0 % 993,2 hPa 0,1 l/m 10,4 km/h (2 Bft) 0 min 2 min 18,5 km/h (3 Bft)
14.12.2011 07:08 13,9 C 6,1 C 0,0 UV-I 0,0 C 53 % 86 % 0 % 993,2 hPa 0,0 l/m 10,4 km/h (2 Bft) 0 min 2 min 14,5 km/h (3 Bft)
14.12.2011 07:10 13,9 C 6,0 C 0,0 UV-I 0,0 C 53 % 86 % 0 % 993,2 hPa 0,2 l/m 10,4 km/h (2 Bft) 0 min 2 min 16,1 km/h (3 Bft)
14.12.2011 07:12 13,9 C 6,1 C 0,0 UV-I 0,0 C 54 % 86 % 0 % 993,2 hPa 0,1 l/m 11,2 km/h (2 Bft) 0 min 2 min 18,1 km/h (3 Bft)
14.12.2011 07:14 13,9 C 6,1 C 0,0 UV-I 0,0 C 54 % 86 % 0 % 993,2 hPa 0,0 l/m 12,0 km/h (2 Bft) 0 min 2 min 19,7 km/h (3 Bft)
14.12.2011 07:16 13,9 C 6,3 C 0,0 UV-I 0,0 C 54 % 86 % 0 % 993,2 hPa 0,1 l/m 11,6 km/h (2 Bft) 0 min 2 min 19,7 km/h (3 Bft)
14.12.2011 07:18 13,9 C 6,3 C 0,0 UV-I 0,0 C 54 % 86 % 0 % 993,2 hPa 0,0 l/m 11,6 km/h (2 Bft) 0 min 2 min 12,4 km/h (3 Bft)
14.12.2011 07:20 13,9 C 6,3 C 0,0 UV-I 0,0 C 54 % 86 % 0 % 993,2 hPa 0,0 l/m 12,0 km/h (2 Bft) 0 min 2 min 21,7 km/h (4 Bft)
14.12.2011 07:22 13,9 C 6,3 C 0,0 UV-I 0,0 C 54 % 87 % 0 % 993,2 hPa 0,1 l/m 12,8 km/h (3 Bft) 0 min 2 min 21,7 km/h (4 Bft)
14.12.2011 07:24 13,9 C 6,3 C 0,0 UV-I 0,0 C 54 % 87 % 0 % 992,1 hPa 0,0 l/m 12,8 km/h (3 Bft) 0 min 2 min 19,7 km/h (3 Bft)
14.12.2011 07:26 13,9 C 6,3 C 0,0 UV-I 0,0 C 54 % 87 % 0 % 992,1 hPa 0,0 l/m 12,8 km/h (3 Bft) 0 min 2 min 14,9 km/h (3 Bft)
14.12.2011 07:28 13,9 C 6,3 C 0,0 UV-I 0,0 C 54 % 87 % 0 % 992,1 hPa 0,0 l/m 12,0 km/h (2 Bft) 0 min 2 min 14,9 km/h (3 Bft)
14.12.2011 07:30 13,9 C 6,3 C 0,0 UV-I 0,0 C 54 % 87 % 0 % 992,1 hPa 0,0 l/m 12,4 km/h (3 Bft) 0 min 2 min 12,0 km/h (2 Bft)
14.12.2011 07:32 13,9 C 6,2 C 0,0 UV-I 0,0 C 54 % 87 % 0 % 992,1 hPa 0,0 l/m 12,4 km/h (3 Bft) 0 min 2 min 11,2 km/h (2 Bft)
14.12.2011 07:34 13,9 C 6,2 C 0,0 UV-I 0,0 C 54 % 87 % 0 % 992,1 hPa 0,2 l/m 11,2 km/h (2 Bft) 0 min 2 min 13,7 km/h (3 Bft)
14.12.2011 07:36 13,9 C 6,2 C 0,0 UV-I 0,0 C 54 % 87 % 0 % 992,1 hPa 0,0 l/m 11,2 km/h (2 Bft) 0 min 2 min 20,9 km/h (4 Bft)
14.12.2011 07:38 13,9 C 6,3 C 0,0 UV-I 0,0 C 54 % 87 % 0 % 992,1 hPa 0,1 l/m 11,2 km/h (2 Bft) 0 min 2 min 20,9 km/h (4 Bft)
14.12.2011 07:40 13,9 C 6,3 C 0,0 UV-I 0,0 C 54 % 87 % 0 % 992,1 hPa 0,1 l/m 10,8 km/h (2 Bft) 0 min 2 min 17,7 km/h (3 Bft)
14.12.2011 07:42 13,9 C 6,3 C 0,0 UV-I 0,0 C 54 % 87 % 0 % 992,1 hPa 0,0 l/m 10,8 km/h (2 Bft) 0 min 2 min 15,3 km/h (3 Bft)
14.12.2011 07:44 13,9 C 6,3 C 0,0 UV-I 0,0 C 54 % 87 % 0 % 991,6 hPa 0,2 l/m 11,6 km/h (2 Bft) 0 min 2 min 32,9 km/h (5 Bft)
14.12.2011 07:46 13,9 C 6,5 C 0,0 UV-I 0,0 C 54 % 88 % 0 % 991,6 hPa 0,1 l/m 12,0 km/h (2 Bft) 0 min 2 min 32,9 km/h (5 Bft)
14.12.2011 07:48 13,9 C 6,4 C 0,0 UV-I 0,0 C 54 % 87 % 0 % 991,6 hPa 0,0 l/m 13,3 km/h (3 Bft) 0 min 2 min 17,3 km/h (3 Bft)
14.12.2011 07:50 13,9 C 6,5 C 0,0 UV-I 0,0 C 54 % 88 % 0 % 991,6 hPa 0,1 l/m 12,8 km/h (3 Bft) 0 min 2 min 17,3 km/h (3 Bft)
14.12.2011 07:52 13,9 C 6,6 C 0,0 UV-I 0,0 C 54 % 88 % 0 % 991,6 hPa 0,0 l/m 12,8 km/h (3 Bft) 0 min 2 min 13,7 km/h (3 Bft)
14.12.2011 07:54 13,9 C 6,7 C 0,0 UV-I 0,0 C 54 % 88 % 0 % 991,6 hPa 0,0 l/m 12,8 km/h (3 Bft) 0 min 2 min 13,7 km/h (3 Bft)
14.12.2011 07:56 13,9 C 6,7 C 0,0 UV-I 0,0 C 54 % 88 % 0 % 991,6 hPa 0,1 l/m 12,0 km/h (2 Bft) 0 min 2 min 11,2 km/h (2 Bft)
14.12.2011 07:58 13,9 C 6,6 C 0,0 UV-I 0,0 C 54 % 88 % 0 % 991,6 hPa 0,1 l/m 11,2 km/h (2 Bft) 0 min 2 min 9,6 km/h (2 Bft)
14.12.2011 08:00 13,9 C 6,7 C 0,0 UV-I 0,0 C 54 % 88 % 0 % 991,6 hPa 0,0 l/m 10,0 km/h (2 Bft) 0 min 2 min 17,3 km/h (3 Bft)
14.12.2011 08:02 13,9 C 6,7 C 0,0 UV-I 0,0 C 55 % 88 % 0 % 991,6 hPa 0,1 l/m 9,6 km/h (2 Bft) 0 min 2 min 17,3 km/h (3 Bft)
14.12.2011 08:04 13,9 C 6,7 C 0,0 UV-I 0,0 C 55 % 88 % 0 % 991,6 hPa 0,1 l/m 9,2 km/h (2 Bft) 0 min 2 min 12,4 km/h (3 Bft)
14.12.2011 08:06 13,9 C 6,7 C 0,0 UV-I 0,0 C 55 % 88 % 0 % 991,6 hPa 0,0 l/m 8,0 km/h (2 Bft) 0 min 2 min 12,4 km/h (3 Bft)
14.12.2011 08:08 13,9 C 6,8 C 0,0 UV-I 0,0 C 55 % 88 % 0 % 991,6 hPa 0,0 l/m 7,6 km/h (2 Bft) 0 min 2 min 10,0 km/h (2 Bft)
14.12.2011 08:10 13,9 C 6,8 C 0,0 UV-I 0,0 C 55 % 88 % 0 % 991,6 hPa 0,0 l/m 7,6 km/h (2 Bft) 0 min 2 min 11,2 km/h (2 Bft)
14.12.2011 08:12 13,9 C 6,8 C 0,0 UV-I 0,0 C 55 % 88 % 0 % 991,6 hPa 0,0 l/m 7,2 km/h (2 Bft) 0 min 2 min 14,1 km/h (3 Bft)
14.12.2011 08:14 13,9 C 6,8 C 0,0 UV-I 0,0 C 55 % 88 % 0 % 991,6 hPa 0,1 l/m 8,0 km/h (2 Bft) 0 min 2 min 30,1 km/h (5 Bft)
14.12.2011 08:16 13,9 C 6,9 C 0,0 UV-I 0,0 C 55 % 88 % 0 % 991,6 hPa 0,0 l/m 8,4 km/h (2 Bft) 0 min 2 min 30,1 km/h (5 Bft)
14.12.2011 08:18 13,9 C 7,1 C 0,0 UV-I 0,0 C 55 % 88 % 0 % 991,6 hPa 0,0 l/m 9,2 km/h (2 Bft) 0 min 2 min 18,1 km/h (3 Bft)
14.12.2011 08:20 13,9 C 7,1 C 0,0 UV-I 0,0 C 55 % 88 % 0 % 991,6 hPa 0,0 l/m 11,2 km/h (2 Bft) 0 min 2 min 14,9 km/h (3 Bft)
14.12.2011 08:22 13,9 C 7,2 C 0,0 UV-I 0,0 C 55 % 88 % 0 % 991,6 hPa 0,0 l/m 11,6 km/h (2 Bft) 0 min 2 min 18,9 km/h (3 Bft)
14.12.2011 08:24 13,9 C 7,2 C 0,0 UV-I 0,0 C 55 % 88 % 0 % 991,7 hPa 0,0 l/m 12,8 km/h (3 Bft) 0 min 2 min 18,9 km/h (3 Bft)
14.12.2011 08:26 13,9 C 7,4 C 0,0 UV-I 0,0 C 55 % 87 % 0 % 991,7 hPa 0,0 l/m 14,5 km/h (3 Bft) 0 min 2 min 18,1 km/h (3 Bft)
14.12.2011 08:28 13,9 C 7,5 C 0,0 UV-I 0,0 C 55 % 87 % 0 % 991,7 hPa 0,0 l/m 14,5 km/h (3 Bft) 0 min 2 min 15,7 km/h (3 Bft)
14.12.2011 08:30 13,9 C 7,6 C 0,0 UV-I 0,0 C 55 % 87 % 0 % 991,7 hPa 0,0 l/m 14,5 km/h (3 Bft) 0 min 2 min 29,3 km/h (5 Bft)
14.12.2011 08:32 13,9 C 7,6 C 0,0 UV-I 0,0 C 55 % 87 % 0 % 991,7 hPa 0,0 l/m 14,5 km/h (3 Bft) 0 min 2 min 73,5 km/h (8 Bft)
14.12.2011 08:34 13,9 C 7,7 C 0,0 UV-I 0,0 C 55 % 86 % 0 % 991,7 hPa 0,0 l/m 13,3 km/h (3 Bft) 0 min 2 min 14,9 km/h (3 Bft)
14.12.2011 08:36 13,9 C 7,7 C 0,0 UV-I 0,0 C 55 % 86 % 0 % 991,7 hPa 0,0 l/m 11,6 km/h (2 Bft) 0 min 2 min 14,9 km/h (3 Bft)
14.12.2011 08:38 13,9 C 7,8 C 0,0 UV-I 0,0 C 55 % 86 % 0 % 991,7 hPa 0,0 l/m 11,2 km/h (2 Bft) 0 min 2 min 17,7 km/h (3 Bft)
14.12.2011 08:40 13,9 C 7,9 C 0,0 UV-I 0,0 C 55 % 86 % 0 % 991,7 hPa 0,0 l/m 10,4 km/h (2 Bft) 0 min 2 min 17,7 km/h (3 Bft)
14.12.2011 08:42 13,9 C 7,8 C 0,0 UV-I 0,0 C 55 % 86 % 0 % 991,7 hPa 0,0 l/m 10,8 km/h (2 Bft) 0 min 0 min 17,7 km/h (3 Bft)
14.12.2011 08:44 13,9 C 7,9 C 0,0 UV-I 0,0 C 55 % 86 % 0 % 992,0 hPa 0,0 l/m 11,6 km/h (2 Bft) 0 min 0 min 11,6 km/h (2 Bft)
14.12.2011 08:46 13,9 C 7,9 C 0,0 UV-I 0,0 C 55 % 86 % 0 % 992,0 hPa 0,0 l/m 11,6 km/h (2 Bft) 0 min 0 min 17,7 km/h (3 Bft)
14.12.2011 08:48 13,9 C 8,0 C 0,0 UV-I 0,0 C 55 % 86 % 0 % 992,0 hPa 0,0 l/m 12,8 km/h (3 Bft) 0 min 0 min 17,7 km/h (3 Bft)
14.12.2011 08:50 13,9 C 8,0 C 0,0 UV-I 0,0 C 55 % 86 % 0 % 992,0 hPa 0,0 l/m 13,3 km/h (3 Bft) 0 min 0 min 13,7 km/h (3 Bft)
14.12.2011 08:52 13,9 C 8,1 C 0,0 UV-I 0,0 C 55 % 85 % 0 % 992,0 hPa 0,0 l/m 14,1 km/h (3 Bft) 0 min 0 min 31,3 km/h (5 Bft)
14.12.2011 08:54 13,9 C 8,1 C 0,0 UV-I 0,0 C 55 % 85 % 0 % 992,0 hPa 0,0 l/m 13,3 km/h (3 Bft) 0 min 0 min 31,3 km/h (5 Bft)
14.12.2011 08:56 13,8 C 8,2 C 0,0 UV-I 0,0 C 55 % 85 % 0 % 992,0 hPa 0,0 l/m 13,3 km/h (3 Bft) 0 min 0 min 16,9 km/h (3 Bft)
14.12.2011 08:58 13,8 C 8,3 C 0,0 UV-I 0,0 C 55 % 85 % 0 % 992,0 hPa 0,0 l/m 14,5 km/h (3 Bft) 0 min 0 min 36,9 km/h (5 Bft)
14.12.2011 09:00 13,9 C 8,2 C 0,0 UV-I 0,0 C 55 % 85 % 0 % 992,0 hPa 0,0 l/m 14,1 km/h (3 Bft) 0 min 0 min 36,9 km/h (5 Bft)
14.12.2011 09:02 13,8 C 8,3 C 0,0 UV-I 0,0 C 55 % 85 % 0 % 992,0 hPa 0,1 l/m 13,7 km/h (3 Bft) 0 min 0 min 20,9 km/h (4 Bft)
14.12.2011 09:04 13,8 C 8,4 C 0,0 UV-I 0,0 C 55 % 84 % 0 % 992,1 hPa 0,0 l/m 14,1 km/h (3 Bft) 0 min 0 min 40,2 km/h (6 Bft)
14.12.2011 09:06 13,8 C 8,4 C 0,0 UV-I 0,0 C 55 % 84 % 0 % 992,1 hPa 0,0 l/m 14,1 km/h (3 Bft) 0 min 0 min 40,2 km/h (6 Bft)
14.12.2011 09:08 14,0 C 8,4 C 0,0 UV-I 0,0 C 55 % 84 % 0 % 992,1 hPa 0,0 l/m 15,7 km/h (3 Bft) 0 min 0 min 32,1 km/h (5 Bft)
14.12.2011 09:10 14,0 C 8,5 C 0,0 UV-I 0,0 C 55 % 84 % 0 % 992,1 hPa 0,0 l/m 14,9 km/h (3 Bft) 0 min 0 min 26,9 km/h (4 Bft)
14.12.2011 09:12 14,0 C 8,5 C 0,0 UV-I 0,0 C 55 % 84 % 0 % 992,1 hPa 0,0 l/m 14,9 km/h (3 Bft) 0 min 0 min 10,4 km/h (2 Bft)
14.12.2011 09:14 14,0 C 8,6 C 0,0 UV-I 0,0 C 55 % 84 % 0 % 992,1 hPa 0,0 l/m 17,3 km/h (3 Bft) 0 min 0 min 41,0 km/h (6 Bft)
14.12.2011 09:16 14,0 C 8,6 C 0,0 UV-I 0,0 C 55 % 84 % 0 % 992,1 hPa 0,0 l/m 16,5 km/h (3 Bft) 0 min 0 min 41,0 km/h (6 Bft)
14.12.2011 09:18 14,0 C 8,7 C 0,0 UV-I 0,0 C 55 % 84 % 0 % 992,1 hPa 0,0 l/m 16,1 km/h (3 Bft) 0 min 2 min 31,3 km/h (5 Bft)
14.12.2011 09:20 14,0 C 8,7 C 0,0 UV-I 0,0 C 55 % 83 % 0 % 992,1 hPa 0,0 l/m 16,9 km/h (3 Bft) 0 min 2 min 31,3 km/h (5 Bft)
14.12.2011 09:22 13,9 C 8,7 C 0,0 UV-I 0,0 C 55 % 84 % 0 % 992,1 hPa 0,0 l/m 16,5 km/h (3 Bft) 0 min 2 min 16,1 km/h (3 Bft)
14.12.2011 09:24 13,9 C 8,7 C 0,0 UV-I 0,0 C 55 % 84 % 0 % 992,5 hPa 0,0 l/m 16,1 km/h (3 Bft) 0 min 2 min 21,7 km/h (4 Bft)
14.12.2011 09:26 13,9 C 8,6 C 0,0 UV-I 0,0 C 55 % 84 % 0 % 992,5 hPa 0,0 l/m 15,3 km/h (3 Bft) 0 min 2 min 25,3 km/h (4 Bft)
14.12.2011 09:28 13,9 C 8,7 C 0,0 UV-I 0,0 C 56 % 84 % 0 % 992,5 hPa 0,0 l/m 15,3 km/h (3 Bft) 0 min 2 min 25,3 km/h (4 Bft)
14.12.2011 09:30 13,9 C 8,7 C 0,0 UV-I 0,0 C 56 % 84 % 0 % 992,5 hPa 0,0 l/m 15,3 km/h (3 Bft) 0 min 2 min 27,3 km/h (4 Bft)
14.12.2011 09:32 14,1 C 8,7 C 0,0 UV-I 0,0 C 56 % 84 % 0 % 992,5 hPa 0,1 l/m 16,1 km/h (3 Bft) 0 min 2 min 27,3 km/h (4 Bft)
14.12.2011 09:34 14,1 C 8,7 C 0,0 UV-I 0,0 C 56 % 84 % 0 % 992,5 hPa 0,0 l/m 16,9 km/h (3 Bft) 0 min 2 min 27,7 km/h (4 Bft)
14.12.2011 09:36 14,1 C 8,5 C 0,0 UV-I 0,0 C 56 % 84 % 0 % 992,5 hPa 0,0 l/m 17,3 km/h (3 Bft) 0 min 2 min 31,7 km/h (5 Bft)
14.12.2011 09:38 14,1 C 8,4 C 0,0 UV-I 0,0 C 56 % 85 % 0 % 992,5 hPa 0,0 l/m 16,5 km/h (3 Bft) 0 min 2 min 31,7 km/h (5 Bft)
14.12.2011 09:40 14,1 C 8,4 C 0,0 UV-I 0,0 C 56 % 85 % 0 % 992,5 hPa 0,2 l/m 16,5 km/h (3 Bft) 0 min 2 min 22,5 km/h (4 Bft)
14.12.2011 09:42 14,1 C 8,3 C 0,0 UV-I 0,0 C 56 % 85 % 0 % 992,5 hPa 0,2 l/m 14,5 km/h (3 Bft) 0 min 2 min 22,5 km/h (4 Bft)
14.12.2011 09:44 14,1 C 8,3 C 0,0 UV-I 0,0 C 56 % 86 % 0 % 993,7 hPa 0,0 l/m 15,3 km/h (3 Bft) 0 min 2 min 47,4 km/h (6 Bft)
14.12.2011 09:46 14,1 C 8,0 C 0,0 UV-I 0,0 C 56 % 86 % 0 % 993,7 hPa 0,1 l/m 15,7 km/h (3 Bft) 0 min 2 min 47,4 km/h (6 Bft)
14.12.2011 09:48 14,1 C 8,1 C 0,0 UV-I 0,0 C 56 % 86 % 0 % 993,7 hPa 0,0 l/m 14,1 km/h (3 Bft) 0 min 2 min 24,5 km/h (4 Bft)
14.12.2011 09:50 14,1 C 7,9 C 0,0 UV-I 0,0 C 56 % 86 % 0 % 993,7 hPa 0,0 l/m 14,1 km/h (3 Bft) 0 min 2 min 15,7 km/h (3 Bft)
14.12.2011 09:52 14,1 C 7,9 C 0,0 UV-I 0,0 C 56 % 86 % 0 % 993,7 hPa 0,0 l/m 14,9 km/h (3 Bft) 0 min 2 min 24,1 km/h (4 Bft)
14.12.2011 09:54 13,9 C 7,9 C 0,0 UV-I 0,0 C 56 % 86 % 0 % 993,7 hPa 0,0 l/m 14,9 km/h (3 Bft) 0 min 2 min 24,1 km/h (4 Bft)
14.12.2011 09:56 13,9 C 7,7 C 0,0 UV-I 0,0 C 56 % 86 % 0 % 993,7 hPa 0,0 l/m 14,1 km/h (3 Bft) 0 min 2 min 31,3 km/h (5 Bft)
14.12.2011 09:58 13,9 C 7,6 C 0,0 UV-I 0,0 C 56 % 86 % 0 % 993,7 hPa 0,1 l/m 14,5 km/h (3 Bft) 0 min 2 min 31,3 km/h (5 Bft)
14.12.2011 10:00 13,9 C 7,6 C 0,0 UV-I 0,0 C 56 % 86 % 0 % 993,7 hPa 0,0 l/m 15,3 km/h (3 Bft) 0 min 2 min 20,9 km/h (4 Bft)
14.12.2011 10:02 13,9 C 7,5 C 0,0 UV-I 0,0 C 56 % 86 % 0 % 993,7 hPa 0,0 l/m 14,9 km/h (3 Bft) 0 min 2 min 17,7 km/h (3 Bft)
14.12.2011 10:04 14,0 C 7,5 C 0,0 UV-I 0,0 C 56 % 86 % 0 % 994,1 hPa 0,0 l/m 13,7 km/h (3 Bft) 0 min 2 min 6,4 km/h (2 Bft)
14.12.2011 10:06 14,0 C 7,5 C 0,0 UV-I 0,0 C 56 % 86 % 0 % 994,1 hPa 0,0 l/m 13,3 km/h (3 Bft) 0 min 2 min 21,3 km/h (4 Bft)
14.12.2011 10:08 14,0 C 7,5 C 0,0 UV-I 0,0 C 56 % 87 % 0 % 994,1 hPa 0,0 l/m 12,4 km/h (3 Bft) 0 min 2 min 21,3 km/h (4 Bft)
14.12.2011 10:10 14,0 C 7,3 C 0,0 UV-I 0,0 C 56 % 87 % 0 % 994,1 hPa 0,0 l/m 11,2 km/h (2 Bft) 0 min 2 min 15,3 km/h (3 Bft)
14.12.2011 10:12 14,0 C 7,3 C 0,0 UV-I 0,0 C 56 % 87 % 0 % 994,1 hPa 0,0 l/m 12,4 km/h (3 Bft) 0 min 2 min 19,7 km/h (3 Bft)
14.12.2011 10:14 14,0 C 7,3 C 0,0 UV-I 0,0 C 56 % 87 % 0 % 994,1 hPa 0,0 l/m 12,0 km/h (2 Bft) 0 min 0 min 10,8 km/h (2 Bft)
14.12.2011 10:19 14,0 C 7,2 C 0,0 UV-I 0,0 C 56 % 87 % 0 % 994,1 hPa 0,0 l/m 12,0 km/h (2 Bft) 0 min 2 min 21,7 km/h (4 Bft)
14.12.2011 10:25 14,0 C 7,1 C 0,0 UV-I 0,0 C 56 % 87 % 0 % 994,2 hPa 0,0 l/m 12,4 km/h (3 Bft) 0 min 2 min 20,1 km/h (4 Bft)
14.12.2011 10:28 14,0 C 7,1 C 0,0 UV-I 0,0 C 56 % 87 % 0 % 994,2 hPa 0,0 l/m 14,5 km/h (3 Bft) 0 min 2 min 20,9 km/h (4 Bft)
14.12.2011 10:30 14,0 C 7,0 C 0,0 UV-I 0,0 C 56 % 87 % 0 % 994,2 hPa 0,0 l/m 14,1 km/h (3 Bft) 0 min 2 min 20,9 km/h (4 Bft)
14.12.2011 10:32 14,0 C 7,0 C 0,0 UV-I 0,0 C 56 % 87 % 0 % 994,2 hPa 0,0 l/m 13,3 km/h (3 Bft) 0 min 2 min 14,5 km/h (3 Bft)
14.12.2011 10:34 14,0 C 7,0 C 0,0 UV-I 0,0 C 56 % 88 % 0 % 994,2 hPa 0,0 l/m 12,8 km/h (3 Bft) 0 min 2 min 20,9 km/h (4 Bft)
14.12.2011 10:36 14,0 C 6,9 C 0,0 UV-I 0,0 C 56 % 88 % 0 % 994,2 hPa 0,0 l/m 12,8 km/h (3 Bft) 0 min 2 min 21,3 km/h (4 Bft)
14.12.2011 10:38 14,0 C 6,9 C 0,0 UV-I 0,0 C 56 % 88 % 0 % 994,2 hPa 0,0 l/m 11,2 km/h (2 Bft) 0 min 2 min 21,3 km/h (4 Bft)
14.12.2011 10:40 14,0 C 6,9 C 0,0 UV-I 0,0 C 56 % 88 % 0 % 994,2 hPa 0,0 l/m 10,8 km/h (2 Bft) 0 min 0 min 19,3 km/h (3 Bft)
14.12.2011 10:42 14,0 C 6,9 C 0,0 UV-I 0,0 C 56 % 88 % 0 % 994,2 hPa 0,0 l/m 11,2 km/h (2 Bft) 0 min 0 min 19,3 km/h (3 Bft)
14.12.2011 10:44 14,0 C 6,9 C 0,0 UV-I 0,0 C 56 % 88 % 0 % 994,6 hPa 0,0 l/m 10,8 km/h (2 Bft) 0 min 0 min 13,7 km/h (3 Bft)
14.12.2011 10:46 14,0 C 6,9 C 0,0 UV-I 0,0 C 56 % 88 % 0 % 994,6 hPa 0,0 l/m 10,4 km/h (2 Bft) 0 min 0 min 13,7 km/h (3 Bft)
14.12.2011 10:48 14,0 C 6,9 C 0,0 UV-I 0,0 C 56 % 88 % 0 % 994,6 hPa 0,0 l/m 10,0 km/h (2 Bft) 0 min 0 min 13,3 km/h (3 Bft)
14.12.2011 10:50 14,0 C 6,9 C 0,0 UV-I 0,0 C 56 % 88 % 0 % 994,6 hPa 0,1 l/m 10,0 km/h (2 Bft) 0 min 0 min 14,5 km/h (3 Bft)
14.12.2011 10:52 14,0 C 6,8 C 0,0 UV-I 0,0 C 56 % 88 % 0 % 994,6 hPa 0,0 l/m 8,8 km/h (2 Bft) 0 min 0 min 14,5 km/h (3 Bft)
14.12.2011 10:54 14,0 C 6,8 C 0,0 UV-I 0,0 C 56 % 88 % 0 % 994,6 hPa 0,0 l/m 8,4 km/h (2 Bft) 0 min 0 min 14,5 km/h (3 Bft)
14.12.2011 10:56 14,0 C 6,9 C 0,0 UV-I 0,0 C 56 % 88 % 0 % 994,6 hPa 0,0 l/m 9,2 km/h (2 Bft) 0 min 0 min 23,3 km/h (4 Bft)
14.12.2011 10:58 14,0 C 6,8 C 0,0 UV-I 0,0 C 56 % 88 % 0 % 994,6 hPa 0,0 l/m 9,6 km/h (2 Bft) 0 min 0 min 23,3 km/h (4 Bft)
14.12.2011 11:00 14,0 C 6,9 C 0,0 UV-I 0,0 C 56 % 88 % 0 % 994,6 hPa 0,0 l/m 9,2 km/h (2 Bft) 0 min 0 min 7,6 km/h (2 Bft)
14.12.2011 11:02 14,0 C 6,9 C 0,0 UV-I 0,0 C 56 % 88 % 0 % 994,6 hPa 0,0 l/m 8,8 km/h (2 Bft) 0 min 0 min 7,2 km/h (2 Bft)
14.12.2011 11:04 14,0 C 6,9 C 0,0 UV-I 0,0 C 56 % 88 % 0 % 994,6 hPa 0,0 l/m 8,8 km/h (2 Bft) 0 min 0 min 9,6 km/h (2 Bft)
14.12.2011 11:06 13,8 C 6,8 C 0,0 UV-I 0,0 C 56 % 88 % 0 % 994,6 hPa 0,0 l/m 8,4 km/h (2 Bft) 0 min 0 min 18,1 km/h (3 Bft)
14.12.2011 11:08 13,8 C 6,8 C 0,0 UV-I 0,0 C 56 % 88 % 0 % 994,6 hPa 0,0 l/m 8,0 km/h (2 Bft) 0 min 0 min 18,1 km/h (3 Bft)
14.12.2011 11:10 13,8 C 6,9 C 0,0 UV-I 0,0 C 56 % 88 % 0 % 994,6 hPa 0,0 l/m 7,6 km/h (2 Bft) 0 min 0 min 12,8 km/h (3 Bft)
14.12.2011 11:12 13,8 C 6,8 C 0,0 UV-I 0,0 C 56 % 88 % 0 % 994,6 hPa 0,0 l/m 8,0 km/h (2 Bft) 0 min 0 min 12,8 km/h (3 Bft)
14.12.2011 11:14 13,9 C 6,9 C 0,0 UV-I 0,0 C 56 % 88 % 0 % 994,6 hPa 0,0 l/m 8,0 km/h (2 Bft) 0 min 0 min 8,0 km/h (2 Bft)
14.12.2011 11:16 13,9 C 6,9 C 0,0 UV-I 0,0 C 56 % 88 % 0 % 994,6 hPa 0,0 l/m 8,0 km/h (2 Bft) 0 min 0 min 10,8 km/h (2 Bft)
14.12.2011 11:18 13,9 C 6,9 C 0,0 UV-I 0,0 C 56 % 88 % 0 % 994,6 hPa 0,0 l/m 7,6 km/h (2 Bft) 0 min 0 min 10,8 km/h (2 Bft)
14.12.2011 11:20 13,8 C 6,9 C 0,0 UV-I 0,0 C 56 % 88 % 0 % 994,6 hPa 0,0 l/m 7,2 km/h (2 Bft) 0 min 0 min 16,9 km/h (3 Bft)
14.12.2011 11:22 13,9 C 6,9 C 0,0 UV-I 0,0 C 56 % 89 % 0 % 994,6 hPa 0,0 l/m 6,8 km/h (2 Bft) 0 min 0 min 16,9 km/h (3 Bft)
14.12.2011 11:24 13,8 C 6,9 C 0,0 UV-I 0,0 C 56 % 89 % 0 % 994,6 hPa 0,0 l/m 7,2 km/h (2 Bft) 0 min 0 min 8,4 km/h (2 Bft)
14.12.2011 11:26 13,8 C 6,8 C 0,0 UV-I 0,0 C 56 % 89 % 0 % 994,6 hPa 0,0 l/m 7,2 km/h (2 Bft) 0 min 0 min 11,6 km/h (2 Bft)
14.12.2011 11:28 13,9 C 6,9 C 0,0 UV-I 0,0 C 56 % 89 % 0 % 994,6 hPa 0,0 l/m 7,2 km/h (2 Bft) 0 min 0 min 11,6 km/h (2 Bft)
14.12.2011 11:30 13,9 C 6,9 C 0,0 UV-I 0,0 C 56 % 89 % 0 % 994,6 hPa 0,0 l/m 7,6 km/h (2 Bft) 0 min 0 min 15,3 km/h (3 Bft)
14.12.2011 11:32 13,9 C 6,9 C 0,0 UV-I 0,0 C 56 % 89 % 0 % 994,6 hPa 0,0 l/m 7,2 km/h (2 Bft) 0 min 0 min 15,3 km/h (3 Bft)
14.12.2011 11:34 13,9 C 6,8 C 0,0 UV-I 0,0 C 56 % 89 % 0 % 994,6 hPa 0,0 l/m 6,4 km/h (2 Bft) 0 min 0 min 8,0 km/h (2 Bft)
14.12.2011 11:36 13,9 C 6,9 C 0,0 UV-I 0,0 C 56 % 89 % 0 % 994,6 hPa 0,0 l/m 6,8 km/h (2 Bft) 0 min 2 min 9,2 km/h (2 Bft)
14.12.2011 11:38 13,9 C 6,8 C 0,0 UV-I 0,0 C 56 % 89 % 0 % 994,6 hPa 0,0 l/m 5,6 km/h (1 Bft) 0 min 2 min 9,2 km/h (2 Bft)
14.12.2011 11:40 13,8 C 6,8 C 0,0 UV-I 0,0 C 56 % 89 % 0 % 994,6 hPa 0,0 l/m 6,0 km/h (2 Bft) 0 min 2 min 6,0 km/h (2 Bft)
14.12.2011 11:42 13,9 C 6,8 C 0,0 UV-I 0,0 C 56 % 89 % 0 % 994,6 hPa 0,0 l/m 5,2 km/h (1 Bft) 0 min 2 min 9,6 km/h (2 Bft)
14.12.2011 11:44 13,9 C 6,9 C 0,0 UV-I 0,0 C 56 % 89 % 0 % 994,9 hPa 0,0 l/m 5,2 km/h (1 Bft) 0 min 2 min 9,6 km/h (2 Bft)
14.12.2011 11:46 13,9 C 6,8 C 0,0 UV-I 0,0 C 56 % 89 % 0 % 994,9 hPa 0,0 l/m 5,6 km/h (1 Bft) 0 min 2 min 9,6 km/h (2 Bft)
14.12.2011 11:48 13,9 C 6,8 C 0,0 UV-I 0,0 C 57 % 89 % 0 % 994,9 hPa 0,0 l/m 4,8 km/h (1 Bft) 0 min 2 min 6,4 km/h (2 Bft)
14.12.2011 11:50 13,9 C 6,8 C 0,0 UV-I 0,0 C 57 % 89 % 0 % 994,9 hPa 0,0 l/m 4,8 km/h (1 Bft) 0 min 0 min 6,4 km/h (2 Bft)
14.12.2011 11:52 13,9 C 6,9 C 0,0 UV-I 0,0 C 57 % 89 % 0 % 994,9 hPa 0,0 l/m 5,2 km/h (1 Bft) 0 min 0 min 7,6 km/h (2 Bft)
14.12.2011 11:54 13,9 C 6,8 C 0,0 UV-I 0,0 C 57 % 89 % 0 % 994,9 hPa 0,0 l/m 4,8 km/h (1 Bft) 0 min 0 min 10,0 km/h (2 Bft)
14.12.2011 11:56 13,9 C 6,8 C 0,0 UV-I 0,0 C 57 % 89 % 0 % 994,9 hPa 0,0 l/m 4,4 km/h (1 Bft) 0 min 0 min 10,0 km/h (2 Bft)
14.12.2011 11:58 13,9 C 6,9 C 0,0 UV-I 0,0 C 57 % 89 % 0 % 994,9 hPa 0,0 l/m 4,4 km/h (1 Bft) 0 min 2 min 8,0 km/h (2 Bft)
14.12.2011 12:00 13,9 C 6,8 C 0,0 UV-I 0,0 C 57 % 90 % 0 % 994,9 hPa 0,0 l/m 4,4 km/h (1 Bft) 0 min 2 min 8,0 km/h (2 Bft)
14.12.2011 12:02 13,9 C 6,8 C 0,0 UV-I 0,0 C 57 % 90 % 0 % 994,9 hPa 0,0 l/m 4,4 km/h (1 Bft) 0 min 0 min 4,8 km/h (1 Bft)
14.12.2011 12:04 13,9 C 6,8 C 0,0 UV-I 0,0 C 57 % 90 % 0 % 994,9 hPa 0,0 l/m 4,4 km/h (1 Bft) 0 min 0 min 11,6 km/h (2 Bft)
14.12.2011 12:06 13,9 C 6,9 C 0,0 UV-I 0,0 C 57 % 90 % 0 % 994,9 hPa 0,0 l/m 4,4 km/h (1 Bft) 0 min 0 min 11,6 km/h (2 Bft)
14.12.2011 12:08 13,9 C 6,8 C 0,0 UV-I 0,0 C 57 % 90 % 0 % 994,9 hPa 0,0 l/m 4,8 km/h (1 Bft) 0 min 0 min 8,0 km/h (2 Bft)
14.12.2011 12:10 13,9 C 6,8 C 0,0 UV-I 0,0 C 57 % 90 % 0 % 994,9 hPa 0,0 l/m 4,0 km/h (1 Bft) 0 min 0 min 5,6 km/h (1 Bft)
14.12.2011 12:12 13,9 C 6,8 C 0,0 UV-I 0,0 C 57 % 90 % 0 % 994,9 hPa 0,0 l/m 4,0 km/h (1 Bft) 0 min 0 min 5,6 km/h (1 Bft)
14.12.2011 12:14 13,8 C 6,8 C 0,0 UV-I 0,0 C 57 % 90 % 0 % 994,9 hPa 0,0 l/m 4,0 km/h (1 Bft) 0 min 0 min 10,4 km/h (2 Bft)
14.12.2011 12:16 13,8 C 6,8 C 0,0 UV-I 0,0 C 57 % 90 % 0 % 994,9 hPa 0,0 l/m 3,6 km/h (1 Bft) 0 min 0 min 10,4 km/h (2 Bft)
14.12.2011 12:18 14,0 C 6,8 C 0,1 UV-I 0,0 C 57 % 90 % 0 % 994,9 hPa 0,0 l/m 3,2 km/h (1 Bft) 0 min 0 min 7,2 km/h (2 Bft)
14.12.2011 12:20 13,8 C 6,8 C 0,1 UV-I 0,0 C 57 % 90 % 0 % 994,9 hPa 0,0 l/m 3,2 km/h (1 Bft) 0 min 0 min 7,2 km/h (2 Bft)
14.12.2011 12:22 14,0 C 6,8 C 0,0 UV-I 0,0 C 57 % 90 % 0 % 994,9 hPa 0,0 l/m 3,6 km/h (1 Bft) 0 min 0 min 10,4 km/h (2 Bft)
14.12.2011 12:24 14,0 C 6,9 C 0,0 UV-I 0,0 C 57 % 90 % 0 % 995,0 hPa 0,0 l/m 4,0 km/h (1 Bft) 0 min 0 min 16,5 km/h (3 Bft)
14.12.2011 12:26 14,0 C 6,8 C 0,0 UV-I 0,0 C 57 % 90 % 0 % 995,0 hPa 0,0 l/m 3,6 km/h (1 Bft) 0 min 0 min 16,5 km/h (3 Bft)
14.12.2011 12:28 14,0 C 6,8 C 0,0 UV-I 0,0 C 57 % 90 % 0 % 995,0 hPa 0,0 l/m 4,0 km/h (1 Bft) 0 min 0 min 8,4 km/h (2 Bft)
14.12.2011 12:30 14,0 C 6,9 C 0,0 UV-I 0,0 C 57 % 90 % 0 % 995,0 hPa 0,0 l/m 4,0 km/h (1 Bft) 0 min 0 min 8,8 km/h (2 Bft)
14.12.2011 12:32 14,0 C 6,8 C 0,0 UV-I 0,0 C 57 % 90 % 0 % 995,0 hPa 0,0 l/m 4,4 km/h (1 Bft) 0 min 0 min 8,8 km/h (2 Bft)
14.12.2011 12:34 14,0 C 6,9 C 0,0 UV-I 0,0 C 57 % 90 % 0 % 995,0 hPa 0,0 l/m 5,2 km/h (1 Bft) 0 min 0 min 8,0 km/h (2 Bft)
14.12.2011 12:36 14,0 C 7,0 C 0,0 UV-I 0,0 C 57 % 90 % 0 % 995,0 hPa 0,0 l/m 4,8 km/h (1 Bft) 0 min 0 min 8,0 km/h (2 Bft)
14.12.2011 12:38 14,0 C 7,0 C 0,0 UV-I 0,0 C 57 % 90 % 0 % 995,0 hPa 0,0 l/m 5,6 km/h (1 Bft) 0 min 0 min 6,0 km/h (2 Bft)
14.12.2011 12:40 14,0 C 7,0 C 0,0 UV-I 0,0 C 57 % 90 % 0 % 995,0 hPa 0,0 l/m 6,0 km/h (2 Bft) 0 min 0 min 11,6 km/h (2 Bft)
14.12.2011 12:42 14,0 C 7,1 C 0,0 UV-I 0,0 C 57 % 90 % 0 % 995,0 hPa 0,0 l/m 7,2 km/h (2 Bft) 0 min 0 min 11,6 km/h (2 Bft)
14.12.2011 12:44 14,0 C 7,1 C 0,0 UV-I 0,0 C 57 % 90 % 0 % 995,2 hPa 0,0 l/m 7,6 km/h (2 Bft) 0 min 0 min 10,0 km/h (2 Bft)
14.12.2011 12:46 13,9 C 7,0 C 0,0 UV-I 0,0 C 57 % 90 % 0 % 995,2 hPa 0,0 l/m 8,0 km/h (2 Bft) 0 min 0 min 10,0 km/h (2 Bft)
14.12.2011 12:48 14,0 C 7,1 C 0,0 UV-I 0,0 C 57 % 90 % 0 % 995,2 hPa 0,0 l/m 8,0 km/h (2 Bft) 0 min 0 min 9,6 km/h (2 Bft)
14.12.2011 12:50 14,0 C 7,1 C 0,0 UV-I 0,0 C 57 % 90 % 0 % 995,2 hPa 0,0 l/m 8,8 km/h (2 Bft) 0 min 0 min 16,5 km/h (3 Bft)
14.12.2011 12:52 14,0 C 7,1 C 0,0 UV-I 0,0 C 57 % 90 % 0 % 995,2 hPa 0,0 l/m 8,0 km/h (2 Bft) 0 min 0 min 16,5 km/h (3 Bft)
14.12.2011 12:54 14,0 C 7,2 C 0,0 UV-I 0,0 C 57 % 90 % 0 % 995,2 hPa 0,0 l/m 7,2 km/h (2 Bft) 0 min 0 min 7,6 km/h (2 Bft)
14.12.2011 12:56 14,0 C 7,2 C 0,0 UV-I 0,0 C 57 % 90 % 0 % 995,2 hPa 0,0 l/m 7,2 km/h (2 Bft) 0 min 0 min 7,6 km/h (2 Bft)
14.12.2011 12:58 14,0 C 7,2 C 0,0 UV-I 0,0 C 57 % 90 % 0 % 995,2 hPa 0,0 l/m 7,6 km/h (2 Bft) 0 min 0 min 20,5 km/h (4 Bft)
14.12.2011 13:00 14,0 C 7,3 C 0,0 UV-I 0,0 C 57 % 90 % 0 % 995,2 hPa 0,0 l/m 6,8 km/h (2 Bft) 0 min 0 min 20,5 km/h (4 Bft)
14.12.2011 13:02 13,9 C 7,3 C 0,0 UV-I 0,0 C 57 % 90 % 0 % 995,2 hPa 0,0 l/m 7,2 km/h (2 Bft) 0 min 0 min 21,3 km/h (4 Bft)
14.12.2011 13:04 13,9 C 7,2 C 0,0 UV-I 0,0 C 57 % 90 % 0 % 995,2 hPa 0,0 l/m 8,0 km/h (2 Bft) 0 min 0 min 14,9 km/h (3 Bft)
14.12.2011 13:06 13,9 C 7,3 C 0,0 UV-I 0,0 C 57 % 90 % 0 % 995,2 hPa 0,0 l/m 9,2 km/h (2 Bft) 0 min 0 min 16,9 km/h (3 Bft)
14.12.2011 13:08 13,9 C 7,3 C 0,0 UV-I 0,0 C 57 % 89 % 0 % 995,2 hPa 0,0 l/m 10,0 km/h (2 Bft) 0 min 0 min 16,9 km/h (3 Bft)
14.12.2011 13:10 13,9 C 7,5 C 0,0 UV-I 0,0 C 57 % 89 % 0 % 995,2 hPa 0,0 l/m 9,6 km/h (2 Bft) 0 min 0 min 12,0 km/h (2 Bft)
14.12.2011 13:12 13,9 C 7,5 C 0,0 UV-I 0,0 C 57 % 89 % 0 % 995,2 hPa 0,0 l/m 11,2 km/h (2 Bft) 0 min 0 min 23,7 km/h (4 Bft)
14.12.2011 13:14 13,9 C 7,5 C 0,0 UV-I 0,0 C 57 % 88 % 0 % 995,2 hPa 0,0 l/m 10,8 km/h (2 Bft) 0 min 0 min 23,7 km/h (4 Bft)
14.12.2011 13:16 13,9 C 7,5 C 0,0 UV-I 0,0 C 57 % 88 % 0 % 995,2 hPa 0,0 l/m 10,4 km/h (2 Bft) 0 min 0 min 12,8 km/h (3 Bft)
14.12.2011 13:18 13,9 C 7,4 C 0,0 UV-I 0,0 C 57 % 88 % 0 % 995,2 hPa 0,0 l/m 10,0 km/h (2 Bft) 0 min 0 min 10,4 km/h (2 Bft)
14.12.2011 13:20 13,9 C 7,4 C 0,0 UV-I 0,0 C 57 % 88 % 0 % 995,2 hPa 0,0 l/m 9,6 km/h (2 Bft) 0 min 0 min 11,6 km/h (2 Bft)
14.12.2011 13:22 13,9 C 7,5 C 0,0 UV-I 0,0 C 56 % 88 % 0 % 995,2 hPa 0,0 l/m 8,8 km/h (2 Bft) 0 min 0 min 11,6 km/h (2 Bft)
14.12.2011 13:24 14,0 C 7,6 C 0,0 UV-I 0,0 C 56 % 88 % 0 % 994,9 hPa 0,0 l/m 7,6 km/h (2 Bft) 0 min 0 min 10,8 km/h (2 Bft)
14.12.2011 13:26 13,9 C 7,6 C 0,0 UV-I 0,0 C 56 % 88 % 0 % 994,9 hPa 0,0 l/m 7,6 km/h (2 Bft) 0 min 0 min 8,4 km/h (2 Bft)
14.12.2011 13:28 13,9 C 7,7 C 0,0 UV-I 0,0 C 56 % 88 % 0 % 994,9 hPa 0,0 l/m 7,6 km/h (2 Bft) 0 min 0 min 12,0 km/h (2 Bft)
14.12.2011 13:30 13,9 C 7,7 C 0,0 UV-I 0,0 C 56 % 88 % 0 % 994,9 hPa 0,0 l/m 8,0 km/h (2 Bft) 0 min 0 min 14,5 km/h (3 Bft)
14.12.2011 13:32 13,9 C 7,6 C 0,0 UV-I 0,0 C 56 % 87 % 0 % 994,9 hPa 0,0 l/m 8,8 km/h (2 Bft) 0 min 0 min 14,5 km/h (3 Bft)
14.12.2011 13:34 13,9 C 7,6 C 0,0 UV-I 0,0 C 56 % 87 % 0 % 994,9 hPa 0,0 l/m 8,8 km/h (2 Bft) 0 min 0 min 13,3 km/h (3 Bft)
14.12.2011 13:36 13,9 C 7,7 C 0,0 UV-I 0,0 C 56 % 87 % 0 % 994,9 hPa 0,0 l/m 8,8 km/h (2 Bft) 0 min 0 min 16,9 km/h (3 Bft)
14.12.2011 13:38 13,9 C 7,7 C 0,0 UV-I 0,0 C 56 % 87 % 0 % 994,9 hPa 0,0 l/m 8,8 km/h (2 Bft) 0 min 0 min 16,9 km/h (3 Bft)
14.12.2011 13:40 14,1 C 7,7 C 0,0 UV-I 0,0 C 56 % 87 % 0 % 994,9 hPa 0,0 l/m 8,8 km/h (2 Bft) 0 min 0 min 11,6 km/h (2 Bft)
14.12.2011 13:42 14,1 C 7,7 C 0,2 UV-I 0,1 C 56 % 87 % 3 % 994,9 hPa 0,0 l/m 8,4 km/h (2 Bft) 0 min 0 min 10,4 km/h (2 Bft)
14.12.2011 13:44 14,1 C 7,9 C 0,2 UV-I 0,2 C 56 % 87 % 6 % 995,1 hPa 0,0 l/m 8,0 km/h (2 Bft) 0 min 0 min 9,2 km/h (2 Bft)
14.12.2011 13:46 14,1 C 7,9 C 0,2 UV-I 0,3 C 56 % 86 % 9 % 995,1 hPa 0,0 l/m 8,0 km/h (2 Bft) 0 min 0 min 9,2 km/h (2 Bft)
14.12.2011 13:48 14,1 C 7,9 C 0,1 UV-I 0,2 C 56 % 86 % 6 % 995,1 hPa 0,0 l/m 7,2 km/h (2 Bft) 0 min 0 min 8,8 km/h (2 Bft)
14.12.2011 13:50 14,2 C 7,9 C 0,1 UV-I 0,0 C 56 % 86 % 0 % 995,1 hPa 0,0 l/m 6,8 km/h (2 Bft) 0 min 0 min 8,4 km/h (2 Bft)
14.12.2011 13:52 14,2 C 7,9 C 0,0 UV-I 0,0 C 56 % 86 % 0 % 995,1 hPa 0,0 l/m 7,2 km/h (2 Bft) 0 min 0 min 26,5 km/h (4 Bft)
14.12.2011 13:54 14,2 C 7,7 C 0,0 UV-I 0,0 C 56 % 86 % 0 % 995,1 hPa 0,0 l/m 8,4 km/h (2 Bft) 0 min 0 min 26,5 km/h (4 Bft)
14.12.2011 13:56 14,2 C 7,9 C 0,0 UV-I 0,0 C 56 % 85 % 0 % 995,1 hPa 0,0 l/m 9,2 km/h (2 Bft) 0 min 0 min 16,5 km/h (3 Bft)
14.12.2011 13:58 14,2 C 7,9 C 0,0 UV-I 0,0 C 56 % 86 % 0 % 995,1 hPa 0,0 l/m 8,8 km/h (2 Bft) 0 min 0 min 16,5 km/h (3 Bft)
14.12.2011 14:00 14,2 C 7,9 C 0,0 UV-I 0,0 C 56 % 86 % 0 % 995,1 hPa 0,0 l/m 8,4 km/h (2 Bft) 0 min 2 min 6,0 km/h (2 Bft)
14.12.2011 14:02 14,2 C 7,8 C 0,0 UV-I 0,0 C 56 % 86 % 0 % 995,1 hPa 0,0 l/m 8,0 km/h (2 Bft) 0 min 2 min 6,0 km/h (2 Bft)
14.12.2011 14:04 14,2 C 7,7 C 0,0 UV-I 0,0 C 56 % 86 % 0 % 995,1 hPa 0,0 l/m 6,8 km/h (2 Bft) 0 min 2 min 7,6 km/h (2 Bft)
14.12.2011 14:06 14,2 C 7,6 C 0,0 UV-I 0,0 C 56 % 86 % 0 % 995,1 hPa 0,0 l/m 6,4 km/h (2 Bft) 0 min 2 min 13,7 km/h (3 Bft)
14.12.2011 14:08 14,2 C 7,6 C 0,0 UV-I 0,0 C 56 % 86 % 0 % 995,1 hPa 0,1 l/m 4,8 km/h (1 Bft) 0 min 2 min 13,7 km/h (3 Bft)
14.12.2011 14:10 14,2 C 7,6 C 0,0 UV-I 0,0 C 56 % 86 % 0 % 995,1 hPa 0,0 l/m 4,4 km/h (1 Bft) 0 min 2 min 6,0 km/h (2 Bft)
14.12.2011 14:12 14,2 C 7,5 C 0,0 UV-I 0,0 C 56 % 86 % 0 % 995,1 hPa 0,0 l/m 5,6 km/h (1 Bft) 0 min 2 min 17,7 km/h (3 Bft)
14.12.2011 14:14 14,2 C 7,4 C 0,0 UV-I 0,0 C 56 % 86 % 0 % 995,1 hPa 0,2 l/m 5,2 km/h (1 Bft) 0 min 2 min 17,7 km/h (3 Bft)
14.12.2011 14:16 14,2 C 7,3 C 0,0 UV-I 0,0 C 56 % 86 % 0 % 995,1 hPa 0,5 l/m 8,0 km/h (2 Bft) 0 min 2 min 16,1 km/h (3 Bft)
14.12.2011 14:18 14,2 C 7,2 C 0,0 UV-I 0,0 C 56 % 86 % 0 % 995,1 hPa 0,0 l/m 9,2 km/h (2 Bft) 0 min 2 min 16,1 km/h (3 Bft)
14.12.2011 14:20 14,2 C 7,1 C 0,0 UV-I 0,0 C 56 % 86 % 0 % 995,1 hPa 0,4 l/m 10,0 km/h (2 Bft) 0 min 0 min 19,3 km/h (3 Bft)
14.12.2011 14:22 14,2 C 6,9 C 0,0 UV-I 0,0 C 56 % 87 % 0 % 995,1 hPa 0,0 l/m 11,2 km/h (2 Bft) 0 min 0 min 19,3 km/h (3 Bft)
14.12.2011 14:24 14,2 C 6,8 C 0,0 UV-I 0,0 C 56 % 87 % 0 % 996,0 hPa 0,0 l/m 12,8 km/h (3 Bft) 0 min 0 min 16,1 km/h (3 Bft)
14.12.2011 14:26 14,2 C 6,7 C 0,0 UV-I 0,0 C 56 % 87 % 0 % 996,0 hPa 0,0 l/m 12,8 km/h (3 Bft) 0 min 0 min 15,3 km/h (3 Bft)
14.12.2011 14:28 14,2 C 6,6 C 0,0 UV-I 0,0 C 56 % 87 % 0 % 996,0 hPa 0,0 l/m 11,6 km/h (2 Bft) 0 min 2 min 12,4 km/h (3 Bft)
14.12.2011 14:30 14,2 C 6,5 C 0,0 UV-I 0,0 C 56 % 87 % 0 % 996,0 hPa 0,0 l/m 13,3 km/h (3 Bft) 0 min 2 min 28,1 km/h (4 Bft)
14.12.2011 14:32 14,2 C 6,5 C 0,0 UV-I 0,0 C 56 % 87 % 0 % 996,0 hPa 0,0 l/m 14,1 km/h (3 Bft) 0 min 2 min 41,4 km/h (6 Bft)
14.12.2011 14:34 14,2 C 6,5 C 0,0 UV-I 0,0 C 56 % 87 % 0 % 996,0 hPa 0,1 l/m 15,3 km/h (3 Bft) 0 min 0 min 41,4 km/h (6 Bft)
14.12.2011 14:36 14,2 C 6,5 C 0,0 UV-I 0,0 C 56 % 87 % 0 % 996,0 hPa 0,0 l/m 14,5 km/h (3 Bft) 0 min 0 min 27,7 km/h (4 Bft)
14.12.2011 14:38 14,2 C 6,4 C 0,0 UV-I 0,0 C 56 % 87 % 0 % 996,0 hPa 0,0 l/m 14,9 km/h (3 Bft) 0 min 2 min 11,6 km/h (2 Bft)
14.12.2011 14:40 14,2 C 6,4 C 0,0 UV-I 0,0 C 56 % 87 % 0 % 996,0 hPa 0,0 l/m 14,9 km/h (3 Bft) 0 min 2 min 20,1 km/h (4 Bft)
14.12.2011 14:42 14,2 C 6,4 C 0,0 UV-I 0,0 C 56 % 87 % 0 % 996,0 hPa 0,0 l/m 14,9 km/h (3 Bft) 0 min 2 min 27,7 km/h (4 Bft)
14.12.2011 14:44 14,2 C 6,3 C 0,0 UV-I 0,0 C 56 % 87 % 0 % 996,7 hPa 0,0 l/m 13,3 km/h (3 Bft) 0 min 2 min 27,7 km/h (4 Bft)
14.12.2011 14:46 14,1 C 6,3 C 0,0 UV-I 0,0 C 56 % 87 % 0 % 996,7 hPa 0,0 l/m 13,3 km/h (3 Bft) 0 min 0 min 21,7 km/h (4 Bft)
14.12.2011 14:48 14,1 C 6,3 C 0,0 UV-I 0,0 C 56 % 87 % 0 % 996,7 hPa 0,0 l/m 12,0 km/h (2 Bft) 0 min 0 min 18,1 km/h (3 Bft)
14.12.2011 14:50 14,1 C 6,1 C 0,0 UV-I 0,0 C 56 % 87 % 0 % 996,7 hPa 0,0 l/m 12,8 km/h (3 Bft) 0 min 0 min 34,9 km/h (5 Bft)
14.12.2011 14:52 14,1 C 6,1 C 0,0 UV-I 0,0 C 56 % 87 % 0 % 996,7 hPa 0,0 l/m 12,4 km/h (3 Bft) 0 min 0 min 36,5 km/h (5 Bft)
14.12.2011 14:54 14,1 C 6,1 C 0,0 UV-I 0,0 C 56 % 88 % 0 % 996,7 hPa 0,0 l/m 12,4 km/h (3 Bft) 0 min 0 min 36,5 km/h (5 Bft)
14.12.2011 14:56 14,1 C 6,1 C 0,0 UV-I 0,0 C 56 % 88 % 0 % 996,7 hPa 0,0 l/m 12,4 km/h (3 Bft) 0 min 0 min 20,5 km/h (4 Bft)
14.12.2011 14:58 14,1 C 6,1 C 0,0 UV-I 0,0 C 56 % 88 % 0 % 996,7 hPa 0,0 l/m 12,4 km/h (3 Bft) 0 min 0 min 16,5 km/h (3 Bft)
14.12.2011 15:00 13,9 C 6,0 C 0,0 UV-I 0,0 C 56 % 88 % 0 % 996,7 hPa 0,0 l/m 12,4 km/h (3 Bft) 0 min 0 min 16,5 km/h (3 Bft)
14.12.2011 15:02 13,9 C 6,1 C 0,0 UV-I 0,0 C 56 % 88 % 0 % 996,7 hPa 0,0 l/m 12,8 km/h (3 Bft) 0 min 0 min 28,5 km/h (4 Bft)
14.12.2011 15:04 14,1 C 6,0 C 0,0 UV-I 0,0 C 56 % 88 % 0 % 996,7 hPa 0,0 l/m 12,4 km/h (3 Bft) 0 min 0 min 12,4 km/h (3 Bft)
14.12.2011 15:06 13,9 C 6,1 C 0,0 UV-I 0,0 C 56 % 88 % 0 % 996,7 hPa 0,0 l/m 12,0 km/h (2 Bft) 0 min 0 min 28,5 km/h (4 Bft)
14.12.2011 15:08 13,9 C 6,1 C 0,0 UV-I 0,0 C 56 % 88 % 0 % 996,7 hPa 0,0 l/m 12,4 km/h (3 Bft) 0 min 0 min 28,5 km/h (4 Bft)
14.12.2011 15:10 13,9 C 6,1 C 0,0 UV-I 0,0 C 56 % 88 % 0 % 996,7 hPa 0,0 l/m 13,7 km/h (3 Bft) 0 min 0 min 23,7 km/h (4 Bft)
14.12.2011 15:12 13,9 C 6,0 C 0,0 UV-I 0,0 C 56 % 87 % 0 % 996,7 hPa 0,0 l/m 12,8 km/h (3 Bft) 0 min 0 min 13,3 km/h (3 Bft)
14.12.2011 15:14 13,9 C 6,0 C 0,0 UV-I 0,0 C 56 % 88 % 0 % 996,7 hPa 0,0 l/m 12,0 km/h (2 Bft) 0 min 0 min 22,5 km/h (4 Bft)
14.12.2011 15:16 13,9 C 6,0 C 0,0 UV-I 0,0 C 56 % 87 % 0 % 996,7 hPa 0,0 l/m 12,4 km/h (3 Bft) 0 min 0 min 22,5 km/h (4 Bft)
14.12.2011 15:18 13,9 C 6,0 C 0,0 UV-I 0,0 C 56 % 87 % 0 % 996,7 hPa 0,0 l/m 11,6 km/h (2 Bft) 0 min 0 min 16,1 km/h (3 Bft)
14.12.2011 15:20 13,9 C 6,1 C 0,0 UV-I 0,0 C 56 % 87 % 0 % 996,7 hPa 0,0 l/m 12,0 km/h (2 Bft) 0 min 0 min 18,1 km/h (3 Bft)
14.12.2011 15:22 13,9 C 6,1 C 0,0 UV-I 0,0 C 55 % 87 % 0 % 996,7 hPa 0,0 l/m 11,6 km/h (2 Bft) 0 min 0 min 18,1 km/h (3 Bft)
14.12.2011 15:24 13,9 C 6,0 C 0,0 UV-I 0,0 C 55 % 87 % 0 % 997,1 hPa 0,0 l/m 12,0 km/h (2 Bft) 0 min 0 min 33,3 km/h (5 Bft)
14.12.2011 15:26 14,0 C 6,0 C 0,0 UV-I 0,0 C 55 % 87 % 0 % 997,1 hPa 0,0 l/m 11,2 km/h (2 Bft) 0 min 0 min 33,3 km/h (5 Bft)
14.12.2011 15:28 14,0 C 6,0 C 0,0 UV-I 0,0 C 55 % 87 % 0 % 997,1 hPa 0,0 l/m 11,2 km/h (2 Bft) 0 min 0 min 15,3 km/h (3 Bft)
14.12.2011 15:30 14,0 C 6,0 C 0,0 UV-I 0,0 C 55 % 87 % 0 % 997,1 hPa 0,0 l/m 11,2 km/h (2 Bft) 0 min 2 min 15,3 km/h (3 Bft)
14.12.2011 15:32 14,0 C 6,0 C 0,0 UV-I 0,0 C 55 % 87 % 0 % 997,1 hPa 0,0 l/m 10,8 km/h (2 Bft) 0 min 2 min 12,8 km/h (3 Bft)
14.12.2011 15:34 14,0 C 6,0 C 0,0 UV-I 0,0 C 55 % 87 % 0 % 997,1 hPa 0,0 l/m 11,2 km/h (2 Bft) 0 min 2 min 12,8 km/h (3 Bft)
14.12.2011 15:36 14,0 C 6,0 C 0,0 UV-I 0,0 C 55 % 87 % 0 % 997,1 hPa 0,0 l/m 10,8 km/h (2 Bft) 0 min 2 min 14,5 km/h (3 Bft)
14.12.2011 15:38 14,0 C 5,9 C 0,0 UV-I 0,0 C 55 % 87 % 0 % 997,1 hPa 0,0 l/m 10,8 km/h (2 Bft) 0 min 2 min 14,5 km/h (3 Bft)
14.12.2011 15:40 13,8 C 5,9 C 0,0 UV-I 0,0 C 55 % 87 % 0 % 997,1 hPa 0,0 l/m 9,2 km/h (2 Bft) 0 min 2 min 12,0 km/h (2 Bft)
14.12.2011 15:42 13,8 C 5,8 C 0,0 UV-I 0,0 C 55 % 87 % 0 % 997,1 hPa 0,0 l/m 9,2 km/h (2 Bft) 0 min 2 min 24,9 km/h (4 Bft)
14.12.2011 15:44 13,8 C 5,9 C 0,0 UV-I 0,0 C 55 % 87 % 0 % 997,0 hPa 0,0 l/m 9,2 km/h (2 Bft) 0 min 2 min 24,9 km/h (4 Bft)
14.12.2011 15:46 13,8 C 5,9 C 0,0 UV-I 0,0 C 55 % 87 % 0 % 997,0 hPa 0,0 l/m 8,8 km/h (2 Bft) 0 min 0 min 11,6 km/h (2 Bft)
14.12.2011 15:48 13,9 C 5,8 C 0,0 UV-I 0,0 C 55 % 88 % 0 % 997,0 hPa 0,0 l/m 8,0 km/h (2 Bft) 0 min 0 min 11,6 km/h (2 Bft)
14.12.2011 15:50 13,9 C 5,9 C 0,0 UV-I 0,0 C 55 % 88 % 0 % 997,0 hPa 0,0 l/m 7,6 km/h (2 Bft) 0 min 0 min 10,0 km/h (2 Bft)
14.12.2011 15:52 13,9 C 5,7 C 0,0 UV-I 0,0 C 55 % 88 % 0 % 997,0 hPa 0,0 l/m 7,2 km/h (2 Bft) 0 min 0 min 10,4 km/h (2 Bft)
14.12.2011 15:54 13,9 C 5,7 C 0,0 UV-I 0,0 C 55 % 88 % 0 % 997,0 hPa 0,0 l/m 6,0 km/h (2 Bft) 0 min 0 min 10,4 km/h (2 Bft)
14.12.2011 15:56 13,9 C 5,7 C 0,0 UV-I 0,0 C 55 % 88 % 0 % 997,0 hPa 0,0 l/m 6,4 km/h (2 Bft) 0 min 2 min 8,4 km/h (2 Bft)
14.12.2011 15:58 13,9 C 5,7 C 0,0 UV-I 0,0 C 55 % 88 % 0 % 997,0 hPa 0,0 l/m 6,0 km/h (2 Bft) 0 min 2 min 8,4 km/h (2 Bft)
14.12.2011 16:00 13,8 C 5,7 C 0,0 UV-I 0,0 C 55 % 88 % 0 % 997,0 hPa 0,1 l/m 6,8 km/h (2 Bft) 0 min 2 min 10,8 km/h (2 Bft)
14.12.2011 16:02 13,9 C 5,7 C 0,0 UV-I 0,0 C 55 % 88 % 0 % 997,0 hPa 0,0 l/m 7,6 km/h (2 Bft) 0 min 2 min 10,8 km/h (2 Bft)
14.12.2011 16:06 13,8 C 5,7 C 0,0 UV-I 0,0 C 55 % 88 % 0 % 997,6 hPa 0,6 l/m 7,2 km/h (2 Bft) 0 min 0 min 9,2 km/h (2 Bft)
14.12.2011 16:08 13,8 C 5,7 C 0,0 UV-I 0,0 C 55 % 88 % 0 % 997,6 hPa 0,0 l/m 7,2 km/h (2 Bft) 0 min 0 min 9,2 km/h (2 Bft)
14.12.2011 16:10 13,8 C 5,6 C 0,0 UV-I 0,0 C 55 % 89 % 0 % 997,6 hPa 0,1 l/m 7,2 km/h (2 Bft) 0 min 0 min 12,0 km/h (2 Bft)
14.12.2011 16:12 13,8 C 5,6 C 0,0 UV-I 0,0 C 55 % 89 % 0 % 997,6 hPa 0,0 l/m 7,2 km/h (2 Bft) 0 min 0 min 12,0 km/h (2 Bft)
14.12.2011 16:14 13,8 C 5,6 C 0,0 UV-I 0,0 C 55 % 89 % 0 % 997,6 hPa 0,0 l/m 8,0 km/h (2 Bft) 0 min 0 min 18,9 km/h (3 Bft)
14.12.2011 16:16 13,8 C 5,6 C 0,0 UV-I 0,0 C 55 % 89 % 0 % 997,6 hPa 0,1 l/m 8,8 km/h (2 Bft) 0 min 0 min 18,9 km/h (3 Bft)
14.12.2011 16:18 13,8 C 5,6 C 0,0 UV-I 0,0 C 55 % 89 % 0 % 997,6 hPa 0,0 l/m 8,4 km/h (2 Bft) 0 min 0 min 17,3 km/h (3 Bft)
14.12.2011 16:20 13,8 C 5,5 C 0,0 UV-I 0,0 C 55 % 89 % 0 % 997,6 hPa 0,0 l/m 9,6 km/h (2 Bft) 0 min 0 min 17,3 km/h (3 Bft)
14.12.2011 16:22 13,8 C 5,5 C 0,0 UV-I 0,0 C 55 % 89 % 0 % 997,6 hPa 0,0 l/m 9,6 km/h (2 Bft) 0 min 0 min 11,2 km/h (2 Bft)
14.12.2011 16:24 13,8 C 5,5 C 0,0 UV-I 0,0 C 55 % 89 % 0 % 997,9 hPa 0,1 l/m 10,4 km/h (2 Bft) 0 min 0 min 11,2 km/h (2 Bft)
14.12.2011 16:26 13,8 C 5,5 C 0,0 UV-I 0,0 C 55 % 89 % 0 % 997,9 hPa 0,0 l/m 10,4 km/h (2 Bft) 0 min 0 min 10,0 km/h (2 Bft)
14.12.2011 16:28 13,6 C 5,4 C 0,0 UV-I 0,0 C 55 % 89 % 0 % 997,9 hPa 0,0 l/m 10,4 km/h (2 Bft) 0 min 0 min 10,0 km/h (2 Bft)
14.12.2011 16:30 13,6 C 5,5 C 0,0 UV-I 0,0 C 55 % 89 % 0 % 997,9 hPa 0,0 l/m 10,0 km/h (2 Bft) 0 min 0 min 17,3 km/h (3 Bft)
14.12.2011 16:32 13,6 C 5,5 C 0,0 UV-I 0,0 C 55 % 89 % 0 % 997,9 hPa 0,0 l/m 10,4 km/h (2 Bft) 0 min 0 min 17,7 km/h (3 Bft)
14.12.2011 16:34 13,6 C 5,5 C 0,0 UV-I 0,0 C 55 % 89 % 0 % 997,9 hPa 0,0 l/m 9,6 km/h (2 Bft) 0 min 0 min 17,7 km/h (3 Bft)
14.12.2011 16:36 13,7 C 5,4 C 0,0 UV-I 0,0 C 55 % 89 % 0 % 997,9 hPa 0,0 l/m 9,6 km/h (2 Bft) 0 min 0 min 19,3 km/h (3 Bft)
14.12.2011 16:38 13,6 C 5,3 C 0,0 UV-I 0,0 C 55 % 89 % 0 % 997,9 hPa 0,0 l/m 9,6 km/h (2 Bft) 0 min 0 min 20,1 km/h (4 Bft)
14.12.2011 16:40 13,6 C 5,4 C 0,0 UV-I 0,0 C 55 % 89 % 0 % 997,9 hPa 0,0 l/m 10,0 km/h (2 Bft) 0 min 0 min 20,1 km/h (4 Bft)
14.12.2011 16:42 13,6 C 5,3 C 0,0 UV-I 0,0 C 55 % 89 % 0 % 997,9 hPa 0,0 l/m 9,6 km/h (2 Bft) 0 min 0 min 14,5 km/h (3 Bft)
14.12.2011 16:44 13,6 C 5,3 C 0,0 UV-I 0,0 C 55 % 89 % 0 % 998,2 hPa 0,0 l/m 8,0 km/h (2 Bft) 0 min 0 min 13,7 km/h (3 Bft)
14.12.2011 16:46 13,6 C 5,3 C 0,0 UV-I 0,0 C 55 % 89 % 0 % 998,2 hPa 0,0 l/m 7,6 km/h (2 Bft) 0 min 0 min 15,3 km/h (3 Bft)
14.12.2011 16:48 13,6 C 5,2 C 0,0 UV-I 0,0 C 55 % 89 % 0 % 998,2 hPa 0,0 l/m 6,8 km/h (2 Bft) 0 min 0 min 15,3 km/h (3 Bft)
14.12.2011 16:50 13,6 C 5,2 C 0,0 UV-I 0,0 C 55 % 89 % 0 % 998,2 hPa 0,0 l/m 7,2 km/h (2 Bft) 0 min 0 min 17,7 km/h (3 Bft)
14.12.2011 16:52 13,6 C 5,2 C 0,0 UV-I 0,0 C 55 % 89 % 0 % 998,2 hPa 0,0 l/m 7,6 km/h (2 Bft) 0 min 0 min 17,7 km/h (3 Bft)
14.12.2011 16:54 13,6 C 5,2 C 0,0 UV-I 0,0 C 55 % 89 % 0 % 998,2 hPa 0,0 l/m 8,4 km/h (2 Bft) 0 min 0 min 17,7 km/h (3 Bft)
14.12.2011 16:56 13,6 C 5,2 C 0,0 UV-I 0,0 C 55 % 89 % 0 % 998,2 hPa 0,0 l/m 9,2 km/h (2 Bft) 0 min 0 min 17,7 km/h (3 Bft)
14.12.2011 16:58 13,6 C 5,3 C 0,0 UV-I 0,0 C 55 % 89 % 0 % 998,2 hPa 0,0 l/m 9,6 km/h (2 Bft) 0 min 0 min 12,0 km/h (2 Bft)
14.12.2011 17:00 13,6 C 5,2 C 0,0 UV-I 0,0 C 55 % 89 % 0 % 998,2 hPa 0,0 l/m 10,0 km/h (2 Bft) 0 min 0 min 8,4 km/h (2 Bft)
14.12.2011 17:02 13,6 C 5,2 C 0,0 UV-I 0,0 C 55 % 89 % 0 % 998,2 hPa 0,0 l/m 9,6 km/h (2 Bft) 0 min 0 min 12,4 km/h (3 Bft)
14.12.2011 17:04 13,6 C 5,1 C 0,0 UV-I 0,0 C 55 % 89 % 0 % 999,1 hPa 0,0 l/m 9,2 km/h (2 Bft) 0 min 0 min 7,2 km/h (2 Bft)
14.12.2011 17:06 13,6 C 5,1 C 0,0 UV-I 0,0 C 55 % 89 % 0 % 999,1 hPa 0,0 l/m 9,6 km/h (2 Bft) 0 min 0 min 15,7 km/h (3 Bft)
14.12.2011 17:08 13,6 C 5,1 C 0,0 UV-I 0,0 C 55 % 89 % 0 % 999,1 hPa 0,0 l/m 10,0 km/h (2 Bft) 0 min 0 min 18,9 km/h (3 Bft)
14.12.2011 17:10 13,6 C 5,1 C 0,0 UV-I 0,0 C 55 % 89 % 0 % 999,1 hPa 0,0 l/m 10,8 km/h (2 Bft) 0 min 0 min 18,9 km/h (3 Bft)
14.12.2011 17:12 13,6 C 4,9 C 0,0 UV-I 0,0 C 55 % 89 % 0 % 999,1 hPa 0,0 l/m 11,2 km/h (2 Bft) 0 min 0 min 22,5 km/h (4 Bft)
14.12.2011 17:14 13,6 C 4,9 C 0,0 UV-I 0,0 C 55 % 89 % 0 % 999,1 hPa 0,0 l/m 12,4 km/h (3 Bft) 0 min 0 min 25,3 km/h (4 Bft)
14.12.2011 17:16 13,6 C 4,9 C 0,0 UV-I 0,0 C 55 % 89 % 0 % 999,1 hPa 0,0 l/m 12,4 km/h (3 Bft) 0 min 0 min 25,3 km/h (4 Bft)
14.12.2011 17:18 13,4 C 4,8 C 0,0 UV-I 0,0 C 55 % 88 % 0 % 999,1 hPa 0,0 l/m 11,6 km/h (2 Bft) 0 min 0 min 12,4 km/h (3 Bft)
14.12.2011 17:20 13,5 C 4,8 C 0,0 UV-I 0,0 C 55 % 88 % 0 % 999,1 hPa 0,0 l/m 11,2 km/h (2 Bft) 0 min 0 min 12,4 km/h (3 Bft)
14.12.2011 17:22 13,5 C 4,9 C 0,0 UV-I 0,0 C 55 % 89 % 0 % 999,1 hPa 0,0 l/m 11,6 km/h (2 Bft) 0 min 0 min 17,3 km/h (3 Bft)
14.12.2011 17:24 13,4 C 4,8 C 0,0 UV-I 0,0 C 55 % 88 % 0 % 999,4 hPa 0,0 l/m 10,0 km/h (2 Bft) 0 min 0 min 17,3 km/h (3 Bft)
14.12.2011 17:26 13,5 C 4,8 C 0,0 UV-I 0,0 C 55 % 88 % 0 % 999,4 hPa 0,0 l/m 9,2 km/h (2 Bft) 0 min 0 min 12,4 km/h (3 Bft)
14.12.2011 17:28 13,5 C 4,8 C 0,0 UV-I 0,0 C 54 % 88 % 0 % 999,4 hPa 0,0 l/m 10,0 km/h (2 Bft) 0 min 0 min 10,8 km/h (2 Bft)
14.12.2011 17:30 13,5 C 4,8 C 0,0 UV-I 0,0 C 54 % 88 % 0 % 999,4 hPa 0,0 l/m 11,2 km/h (2 Bft) 0 min 0 min 10,8 km/h (2 Bft)
14.12.2011 17:32 13,5 C 4,8 C 0,0 UV-I 0,0 C 54 % 88 % 0 % 999,4 hPa 0,0 l/m 11,2 km/h (2 Bft) 0 min 0 min 24,9 km/h (4 Bft)
14.12.2011 17:34 13,5 C 4,7 C 0,0 UV-I 0,0 C 54 % 88 % 0 % 999,4 hPa 0,0 l/m 10,8 km/h (2 Bft) 0 min 0 min 24,9 km/h (4 Bft)
14.12.2011 17:36 13,3 C 4,7 C 0,0 UV-I 0,0 C 54 % 88 % 0 % 999,4 hPa 0,0 l/m 11,2 km/h (2 Bft) 0 min 0 min 17,7 km/h (3 Bft)
14.12.2011 17:38 13,3 C 4,7 C 0,0 UV-I 0,0 C 54 % 88 % 0 % 999,4 hPa 0,0 l/m 10,8 km/h (2 Bft) 0 min 0 min 13,3 km/h (3 Bft)
14.12.2011 17:40 13,3 C 4,7 C 0,0 UV-I 0,0 C 54 % 88 % 0 % 999,4 hPa 0,0 l/m 8,8 km/h (2 Bft) 0 min 2 min 8,8 km/h (2 Bft)
14.12.2011 17:42 13,4 C 4,7 C 0,0 UV-I 0,0 C 54 % 88 % 0 % 999,4 hPa 0,0 l/m 8,8 km/h (2 Bft) 0 min 2 min 9,2 km/h (2 Bft)
14.12.2011 17:44 13,4 C 4,7 C 0,0 UV-I 0,0 C 54 % 89 % 0 % 999,9 hPa 0,0 l/m 8,4 km/h (2 Bft) 0 min 2 min 10,8 km/h (2 Bft)
14.12.2011 17:46 13,4 C 4,6 C 0,0 UV-I 0,0 C 54 % 89 % 0 % 999,9 hPa 0,0 l/m 8,8 km/h (2 Bft) 0 min 2 min 32,5 km/h (5 Bft)
14.12.2011 17:48 13,4 C 4,6 C 0,0 UV-I 0,0 C 55 % 89 % 0 % 999,9 hPa 0,0 l/m 8,4 km/h (2 Bft) 0 min 2 min 32,5 km/h (5 Bft)
14.12.2011 17:50 13,4 C 4,7 C 0,0 UV-I 0,0 C 54 % 89 % 0 % 999,9 hPa 0,0 l/m 9,2 km/h (2 Bft) 0 min 2 min 16,9 km/h (3 Bft)
14.12.2011 17:52 13,4 C 4,7 C 0,0 UV-I 0,0 C 54 % 89 % 0 % 999,9 hPa 0,0 l/m 10,4 km/h (2 Bft) 0 min 2 min 32,5 km/h (5 Bft)
14.12.2011 17:54 13,4 C 4,7 C 0,0 UV-I 0,0 C 54 % 89 % 0 % 999,9 hPa 0,0 l/m 11,2 km/h (2 Bft) 0 min 2 min 32,5 km/h (5 Bft)
14.12.2011 17:56 13,4 C 4,7 C 0,0 UV-I 0,0 C 54 % 89 % 0 % 999,9 hPa 0,0 l/m 11,2 km/h (2 Bft) 0 min 0 min 19,7 km/h (3 Bft)
14.12.2011 17:58 13,4 C 4,7 C 0,0 UV-I 0,0 C 54 % 89 % 0 % 999,9 hPa 0,0 l/m 10,8 km/h (2 Bft) 0 min 2 min 8,0 km/h (2 Bft)
14.12.2011 18:00 13,4 C 4,7 C 0,0 UV-I 0,0 C 54 % 89 % 0 % 999,9 hPa 0,0 l/m 10,0 km/h (2 Bft) 0 min 2 min 8,0 km/h (2 Bft)
14.12.2011 18:02 13,4 C 4,7 C 0,0 UV-I 0,0 C 54 % 89 % 0 % 999,9 hPa 0,0 l/m 9,6 km/h (2 Bft) 0 min 2 min 8,4 km/h (2 Bft)
14.12.2011 18:06 13,2 C 4,5 C 0,0 UV-I 0,0 C 54 % 89 % 0 % 999,8 hPa 0,0 l/m 8,8 km/h (2 Bft) 0 min 0 min 17,7 km/h (3 Bft)
14.12.2011 18:08 13,4 C 4,6 C 0,0 UV-I 0,0 C 54 % 89 % 0 % 999,8 hPa 0,1 l/m 9,2 km/h (2 Bft) 0 min 0 min 16,9 km/h (3 Bft)
14.12.2011 18:10 13,2 C 4,5 C 0,0 UV-I 0,0 C 54 % 89 % 0 % 999,8 hPa 0,0 l/m 9,2 km/h (2 Bft) 0 min 0 min 16,9 km/h (3 Bft)
14.12.2011 18:12 13,4 C 4,5 C 0,0 UV-I 0,0 C 54 % 89 % 0 % 999,8 hPa 0,0 l/m 10,0 km/h (2 Bft) 0 min 0 min 16,9 km/h (3 Bft)
14.12.2011 18:14 13,2 C 4,5 C 0,0 UV-I 0,0 C 54 % 89 % 0 % 999,8 hPa 0,0 l/m 10,8 km/h (2 Bft) 0 min 0 min 16,9 km/h (3 Bft)
14.12.2011 18:16 13,2 C 4,5 C 0,0 UV-I 0,0 C 54 % 89 % 0 % 999,8 hPa 0,0 l/m 10,0 km/h (2 Bft) 0 min 0 min 8,4 km/h (2 Bft)
14.12.2011 18:18 13,2 C 4,5 C 0,0 UV-I 0,0 C 54 % 89 % 0 % 999,8 hPa 0,0 l/m 10,0 km/h (2 Bft) 0 min 0 min 22,5 km/h (4 Bft)
14.12.2011 18:20 13,2 C 4,4 C 0,0 UV-I 0,0 C 54 % 89 % 0 % 999,8 hPa 0,0 l/m 9,6 km/h (2 Bft) 0 min 0 min 22,5 km/h (4 Bft)
14.12.2011 18:22 13,2 C 4,4 C 0,0 UV-I 0,0 C 54 % 89 % 0 % 999,8 hPa 0,0 l/m 9,6 km/h (2 Bft) 0 min 0 min 27,3 km/h (4 Bft)
14.12.2011 18:24 13,2 C 4,4 C 0,0 UV-I 0,0 C 54 % 89 % 0 % 999,9 hPa 0,0 l/m 10,0 km/h (2 Bft) 0 min 0 min 27,3 km/h (4 Bft)
14.12.2011 18:26 13,2 C 4,4 C 0,0 UV-I 0,0 C 54 % 89 % 0 % 999,9 hPa 0,0 l/m 9,6 km/h (2 Bft) 0 min 0 min 15,3 km/h (3 Bft)
14.12.2011 18:28 13,2 C 4,4 C 0,0 UV-I 0,0 C 54 % 89 % 0 % 999,9 hPa 0,0 l/m 9,6 km/h (2 Bft) 0 min 0 min 15,3 km/h (3 Bft)
14.12.2011 18:30 13,2 C 4,4 C 0,0 UV-I 0,0 C 54 % 89 % 0 % 999,9 hPa 0,0 l/m 9,6 km/h (2 Bft) 0 min 0 min 16,5 km/h (3 Bft)
14.12.2011 18:32 13,2 C 4,4 C 0,0 UV-I 0,0 C 54 % 89 % 0 % 999,9 hPa 0,0 l/m 10,0 km/h (2 Bft) 0 min 0 min 16,5 km/h (3 Bft)
14.12.2011 18:34 13,2 C 4,4 C 0,0 UV-I 0,0 C 54 % 88 % 0 % 999,9 hPa 0,0 l/m 10,4 km/h (2 Bft) 0 min 0 min 13,3 km/h (3 Bft)
14.12.2011 18:36 13,2 C 4,4 C 0,0 UV-I 0,0 C 54 % 88 % 0 % 999,9 hPa 0,0 l/m 10,0 km/h (2 Bft) 0 min 0 min 15,3 km/h (3 Bft)
14.12.2011 18:38 13,2 C 4,4 C 0,0 UV-I 0,0 C 54 % 88 % 0 % 999,9 hPa 0,0 l/m 10,8 km/h (2 Bft) 0 min 0 min 23,3 km/h (4 Bft)
14.12.2011 18:40 13,3 C 4,4 C 0,0 UV-I 0,0 C 54 % 88 % 0 % 999,9 hPa 0,0 l/m 11,6 km/h (2 Bft) 0 min 0 min 23,3 km/h (4 Bft)
14.12.2011 18:42 13,3 C 4,4 C 0,0 UV-I 0,0 C 54 % 88 % 0 % 999,9 hPa 0,0 l/m 11,2 km/h (2 Bft) 0 min 0 min 14,5 km/h (3 Bft)
14.12.2011 18:44 13,1 C 4,4 C 0,0 UV-I 0,0 C 54 % 88 % 0 % 1000,6 hPa 0,0 l/m 11,6 km/h (2 Bft) 0 min 0 min 23,3 km/h (4 Bft)
14.12.2011 18:46 13,1 C 4,4 C 0,0 UV-I 0,0 C 54 % 88 % 0 % 1000,6 hPa 0,0 l/m 11,6 km/h (2 Bft) 0 min 0 min 23,3 km/h (4 Bft)
14.12.2011 18:48 13,1 C 4,4 C 0,0 UV-I 0,0 C 54 % 88 % 0 % 1000,6 hPa 0,0 l/m 12,4 km/h (3 Bft) 0 min 0 min 19,7 km/h (3 Bft)
14.12.2011 18:50 13,1 C 4,4 C 0,0 UV-I 0,0 C 54 % 88 % 0 % 1000,6 hPa 0,0 l/m 11,6 km/h (2 Bft) 0 min 0 min 20,1 km/h (4 Bft)
14.12.2011 18:52 13,1 C 4,4 C 0,0 UV-I 0,0 C 54 % 88 % 0 % 1000,6 hPa 0,0 l/m 12,0 km/h (2 Bft) 0 min 0 min 26,9 km/h (4 Bft)
14.12.2011 18:54 13,1 C 4,5 C 0,0 UV-I 0,0 C 54 % 88 % 0 % 1000,6 hPa 0,0 l/m 13,3 km/h (3 Bft) 0 min 0 min 26,9 km/h (4 Bft)
14.12.2011 18:56 13,1 C 4,4 C 0,0 UV-I 0,0 C 53 % 88 % 0 % 1000,6 hPa 0,0 l/m 12,4 km/h (3 Bft) 0 min 0 min 24,5 km/h (4 Bft)
14.12.2011 18:58 13,1 C 4,4 C 0,0 UV-I 0,0 C 53 % 88 % 0 % 1000,6 hPa 0,0 l/m 11,2 km/h (2 Bft) 0 min 0 min 24,5 km/h (4 Bft)
14.12.2011 19:00 13,1 C 4,4 C 0,0 UV-I 0,0 C 54 % 88 % 0 % 1000,6 hPa 0,0 l/m 11,2 km/h (2 Bft) 0 min 0 min 20,5 km/h (4 Bft)
14.12.2011 19:02 13,2 C 4,4 C 0,0 UV-I 0,0 C 54 % 88 % 0 % 1000,6 hPa 0,0 l/m 11,2 km/h (2 Bft) 0 min 0 min 20,5 km/h (4 Bft)
14.12.2011 19:06 13,1 C 4,4 C 0,0 UV-I 0,0 C 53 % 88 % 0 % 1000,7 hPa 0,0 l/m 11,6 km/h (2 Bft) 0 min 0 min 16,5 km/h (3 Bft)
14.12.2011 19:08 13,2 C 4,4 C 0,0 UV-I 0,0 C 53 % 88 % 0 % 1000,7 hPa 0,0 l/m 12,8 km/h (3 Bft) 0 min 0 min 16,9 km/h (3 Bft)
14.12.2011 19:10 13,2 C 4,4 C 0,0 UV-I 0,0 C 53 % 88 % 0 % 1000,7 hPa 0,0 l/m 13,7 km/h (3 Bft) 0 min 0 min 25,3 km/h (4 Bft)
14.12.2011 19:12 13,2 C 4,4 C 0,0 UV-I 0,0 C 53 % 88 % 0 % 1000,7 hPa 0,0 l/m 13,3 km/h (3 Bft) 0 min 0 min 25,3 km/h (4 Bft)
14.12.2011 19:14 13,2 C 4,4 C 0,0 UV-I 0,0 C 53 % 88 % 0 % 1000,7 hPa 0,0 l/m 12,4 km/h (3 Bft) 0 min 0 min 14,9 km/h (3 Bft)
14.12.2011 19:16 13,2 C 4,5 C 0,0 UV-I 0,0 C 53 % 88 % 0 % 1000,7 hPa 0,0 l/m 12,0 km/h (2 Bft) 0 min 0 min 18,5 km/h (3 Bft)
14.12.2011 19:18 13,2 C 4,4 C 0,0 UV-I 0,0 C 53 % 87 % 0 % 1000,7 hPa 0,0 l/m 11,6 km/h (2 Bft) 0 min 0 min 18,5 km/h (3 Bft)
14.12.2011 19:20 13,2 C 4,4 C 0,0 UV-I 0,0 C 53 % 87 % 0 % 1000,7 hPa 0,0 l/m 11,2 km/h (2 Bft) 0 min 0 min 12,4 km/h (3 Bft)
14.12.2011 19:22 13,2 C 4,4 C 0,0 UV-I 0,0 C 53 % 87 % 0 % 1000,7 hPa 0,0 l/m 11,2 km/h (2 Bft) 0 min 0 min 12,4 km/h (3 Bft)
14.12.2011 19:24 13,2 C 4,4 C 0,0 UV-I 0,0 C 53 % 87 % 0 % 1001,0 hPa 0,0 l/m 11,6 km/h (2 Bft) 0 min 0 min 27,7 km/h (4 Bft)
14.12.2011 19:26 13,2 C 4,4 C 0,0 UV-I 0,0 C 53 % 87 % 0 % 1001,0 hPa 0,0 l/m 11,6 km/h (2 Bft) 0 min 0 min 27,7 km/h (4 Bft)
14.12.2011 19:28 13,2 C 4,3 C 0,0 UV-I 0,0 C 53 % 87 % 0 % 1001,0 hPa 0,0 l/m 11,6 km/h (2 Bft) 0 min 0 min 29,3 km/h (5 Bft)
14.12.2011 19:30 13,1 C 4,3 C 0,0 UV-I 0,0 C 53 % 87 % 0 % 1001,0 hPa 0,0 l/m 12,0 km/h (2 Bft) 0 min 0 min 29,3 km/h (5 Bft)
14.12.2011 19:32 13,2 C 4,3 C 0,0 UV-I 0,0 C 53 % 87 % 0 % 1001,0 hPa 0,0 l/m 11,2 km/h (2 Bft) 0 min 0 min 14,9 km/h (3 Bft)
14.12.2011 19:34 13,1 C 4,3 C 0,0 UV-I 0,0 C 53 % 87 % 0 % 1001,0 hPa 0,0 l/m 11,6 km/h (2 Bft) 0 min 0 min 28,9 km/h (5 Bft)
14.12.2011 19:36 13,1 C 4,2 C 0,0 UV-I 0,0 C 53 % 87 % 0 % 1001,0 hPa 0,0 l/m 10,8 km/h (2 Bft) 0 min 0 min 28,9 km/h (5 Bft)
14.12.2011 19:38 13,1 C 4,2 C 0,0 UV-I 0,0 C 53 % 87 % 0 % 1001,0 hPa 0,0 l/m 10,4 km/h (2 Bft) 0 min 0 min 12,0 km/h (2 Bft)
14.12.2011 19:40 13,1 C 4,3 C 0,0 UV-I 0,0 C 53 % 87 % 0 % 1001,0 hPa 0,0 l/m 8,8 km/h (2 Bft) 0 min 0 min 14,5 km/h (3 Bft)
14.12.2011 19:42 13,1 C 4,3 C 0,0 UV-I 0,0 C 53 % 87 % 0 % 1001,0 hPa 0,0 l/m 9,6 km/h (2 Bft) 0 min 0 min 14,5 km/h (3 Bft)
14.12.2011 19:44 13,1 C 4,3 C 0,0 UV-I 0,0 C 53 % 87 % 0 % 1001,1 hPa 0,0 l/m 9,2 km/h (2 Bft) 0 min 0 min 9,2 km/h (2 Bft)
14.12.2011 19:46 13,1 C 4,3 C 0,0 UV-I 0,0 C 53 % 87 % 0 % 1001,1 hPa 0,0 l/m 9,6 km/h (2 Bft) 0 min 0 min 24,5 km/h (4 Bft)
14.12.2011 19:48 13,1 C 4,3 C 0,0 UV-I 0,0 C 53 % 87 % 0 % 1001,1 hPa 0,0 l/m 10,0 km/h (2 Bft) 0 min 0 min 28,1 km/h (4 Bft)
14.12.2011 19:50 13,1 C 4,3 C 0,0 UV-I 0,0 C 53 % 87 % 0 % 1001,1 hPa 0,0 l/m 10,4 km/h (2 Bft) 0 min 0 min 28,1 km/h (4 Bft)
14.12.2011 19:52 13,1 C 4,2 C 0,0 UV-I 0,0 C 53 % 87 % 0 % 1001,1 hPa 0,0 l/m 11,2 km/h (2 Bft) 0 min 0 min 25,3 km/h (4 Bft)
14.12.2011 19:54 13,1 C 4,2 C 0,0 UV-I 0,0 C 53 % 87 % 0 % 1001,1 hPa 0,0 l/m 12,0 km/h (2 Bft) 0 min 0 min 25,3 km/h (4 Bft)
14.12.2011 19:56 13,1 C 4,2 C 0,0 UV-I 0,0 C 52 % 87 % 0 % 1001,1 hPa 0,0 l/m 12,4 km/h (3 Bft) 0 min 0 min 12,0 km/h (2 Bft)
14.12.2011 19:58 13,1 C 4,3 C 0,0 UV-I 0,0 C 52 % 87 % 0 % 1001,1 hPa 0,0 l/m 11,2 km/h (2 Bft) 0 min 0 min 14,1 km/h (3 Bft)
14.12.2011 20:00 13,1 C 4,3 C 0,0 UV-I 0,0 C 52 % 87 % 0 % 1001,1 hPa 0,0 l/m 11,6 km/h (2 Bft) 0 min 0 min 20,1 km/h (4 Bft)
14.12.2011 20:02 12,9 C 4,3 C 0,0 UV-I 0,0 C 53 % 87 % 0 % 1001,1 hPa 0,0 l/m 11,6 km/h (2 Bft) 0 min 0 min 20,1 km/h (4 Bft)
14.12.2011 20:06 12,9 C 4,3 C 0,0 UV-I 0,0 C 53 % 87 % 0 % 1001,2 hPa 0,0 l/m 11,6 km/h (2 Bft) 0 min 0 min 25,7 km/h (4 Bft)
14.12.2011 20:08 13,1 C 4,4 C 0,0 UV-I 0,0 C 52 % 87 % 0 % 1001,2 hPa 0,0 l/m 12,0 km/h (2 Bft) 0 min 0 min 9,2 km/h (2 Bft)
14.12.2011 20:10 12,9 C 4,4 C 0,0 UV-I 0,0 C 52 % 87 % 0 % 1001,2 hPa 0,0 l/m 12,0 km/h (2 Bft) 0 min 0 min 29,3 km/h (5 Bft)
14.12.2011 20:12 12,9 C 4,5 C 0,0 UV-I 0,0 C 52 % 87 % 0 % 1001,2 hPa 0,0 l/m 13,3 km/h (3 Bft) 0 min 0 min 31,7 km/h (5 Bft)
14.12.2011 20:14 12,9 C 4,4 C 0,0 UV-I 0,0 C 52 % 87 % 0 % 1001,2 hPa 0,0 l/m 13,7 km/h (3 Bft) 0 min 0 min 31,7 km/h (5 Bft)
14.12.2011 20:16 13,1 C 4,4 C 0,0 UV-I 0,0 C 52 % 87 % 0 % 1001,2 hPa 0,0 l/m 12,8 km/h (3 Bft) 0 min 0 min 21,3 km/h (4 Bft)
14.12.2011 20:18 12,9 C 4,5 C 0,0 UV-I 0,0 C 52 % 87 % 0 % 1001,2 hPa 0,0 l/m 13,7 km/h (3 Bft) 0 min 0 min 24,1 km/h (4 Bft)
14.12.2011 20:20 13,0 C 4,5 C 0,0 UV-I 0,0 C 52 % 87 % 0 % 1001,2 hPa 0,0 l/m 15,3 km/h (3 Bft) 0 min 0 min 24,1 km/h (4 Bft)
14.12.2011 20:22 12,9 C 4,7 C 0,0 UV-I 0,0 C 52 % 87 % 0 % 1001,2 hPa 0,0 l/m 15,3 km/h (3 Bft) 0 min 0 min 20,1 km/h (4 Bft)
14.12.2011 20:24 13,0 C 4,6 C 0,0 UV-I 0,0 C 52 % 86 % 0 % 1001,5 hPa 0,0 l/m 14,5 km/h (3 Bft) 0 min 0 min 33,3 km/h (5 Bft)
14.12.2011 20:26 12,9 C 4,7 C 0,0 UV-I 0,0 C 52 % 86 % 0 % 1001,5 hPa 0,0 l/m 15,7 km/h (3 Bft) 0 min 0 min 34,5 km/h (5 Bft)
14.12.2011 20:28 13,0 C 4,7 C 0,0 UV-I 0,0 C 52 % 86 % 0 % 1001,5 hPa 0,0 l/m 16,5 km/h (3 Bft) 0 min 0 min 34,5 km/h (5 Bft)
14.12.2011 20:30 13,0 C 4,8 C 0,0 UV-I 0,0 C 52 % 86 % 0 % 1001,5 hPa 0,0 l/m 17,7 km/h (3 Bft) 0 min 0 min 30,9 km/h (5 Bft)
14.12.2011 20:32 12,9 C 4,8 C 0,0 UV-I 0,0 C 52 % 86 % 0 % 1001,5 hPa 0,0 l/m 18,9 km/h (3 Bft) 0 min 0 min 30,9 km/h (5 Bft)
14.12.2011 20:34 12,9 C 4,8 C 0,0 UV-I 0,0 C 52 % 86 % 0 % 1001,5 hPa 0,0 l/m 20,5 km/h (4 Bft) 0 min 0 min 34,1 km/h (5 Bft)
14.12.2011 20:36 13,1 C 4,9 C 0,0 UV-I 0,0 C 52 % 86 % 0 % 1001,5 hPa 0,0 l/m 21,3 km/h (4 Bft) 0 min 0 min 34,1 km/h (5 Bft)
14.12.2011 20:38 13,1 C 4,9 C 0,0 UV-I 0,0 C 52 % 86 % 0 % 1001,5 hPa 0,0 l/m 20,9 km/h (4 Bft) 0 min 0 min 27,3 km/h (4 Bft)
14.12.2011 20:40 13,1 C 4,8 C 0,0 UV-I 0,0 C 52 % 86 % 0 % 1001,5 hPa 0,0 l/m 20,9 km/h (4 Bft) 0 min 0 min 27,3 km/h (4 Bft)
14.12.2011 20:42 13,1 C 4,8 C 0,0 UV-I 0,0 C 52 % 86 % 0 % 1001,5 hPa 0,0 l/m 19,3 km/h (3 Bft) 0 min 0 min 24,5 km/h (4 Bft)
14.12.2011 20:44 12,9 C 4,8 C 0,0 UV-I 0,0 C 52 % 86 % 0 % 1001,8 hPa 0,0 l/m 18,9 km/h (3 Bft) 0 min 0 min 23,3 km/h (4 Bft)
14.12.2011 20:46 12,9 C 4,7 C 0,0 UV-I 0,0 C 52 % 86 % 0 % 1001,8 hPa 0,0 l/m 16,1 km/h (3 Bft) 0 min 0 min 23,3 km/h (4 Bft)
14.12.2011 20:48 12,9 C 4,7 C 0,0 UV-I 0,0 C 52 % 86 % 0 % 1001,8 hPa 0,0 l/m 14,9 km/h (3 Bft) 0 min 0 min 15,3 km/h (3 Bft)
14.12.2011 20:50 12,9 C 4,7 C 0,0 UV-I 0,0 C 52 % 86 % 0 % 1001,8 hPa 0,0 l/m 13,7 km/h (3 Bft) 0 min 0 min 15,7 km/h (3 Bft)
14.12.2011 20:52 13,0 C 4,6 C 0,0 UV-I 0,0 C 52 % 86 % 0 % 1001,8 hPa 0,0 l/m 13,3 km/h (3 Bft) 0 min 0 min 30,9 km/h (5 Bft)
14.12.2011 20:54 13,0 C 4,5 C 0,0 UV-I 0,0 C 52 % 86 % 0 % 1001,8 hPa 0,0 l/m 12,4 km/h (3 Bft) 0 min 0 min 30,9 km/h (5 Bft)
14.12.2011 20:56 13,0 C 4,5 C 0,0 UV-I 0,0 C 52 % 86 % 0 % 1001,8 hPa 0,0 l/m 12,4 km/h (3 Bft) 0 min 0 min 27,7 km/h (4 Bft)
14.12.2011 20:58 13,0 C 4,5 C 0,0 UV-I 0,0 C 52 % 86 % 0 % 1001,8 hPa 0,0 l/m 11,6 km/h (2 Bft) 0 min 0 min 12,8 km/h (3 Bft)
14.12.2011 21:00 13,0 C 4,5 C 0,0 UV-I 0,0 C 52 % 86 % 0 % 1001,8 hPa 0,0 l/m 13,7 km/h (3 Bft) 0 min 0 min 31,7 km/h (5 Bft)
14.12.2011 21:02 13,0 C 4,5 C 0,0 UV-I 0,0 C 52 % 87 % 0 % 1001,8 hPa 0,0 l/m 12,8 km/h (3 Bft) 0 min 0 min 31,7 km/h (5 Bft)
14.12.2011 21:06 13,0 C 4,5 C 0,0 UV-I 0,0 C 52 % 87 % 0 % 1002,2 hPa 0,0 l/m 12,8 km/h (3 Bft) 0 min 0 min 21,3 km/h (4 Bft)
14.12.2011 21:08 13,0 C 4,5 C 0,0 UV-I 0,0 C 52 % 87 % 0 % 1002,2 hPa 0,0 l/m 13,7 km/h (3 Bft) 0 min 0 min 22,9 km/h (4 Bft)
14.12.2011 21:10 13,0 C 4,5 C 0,0 UV-I 0,0 C 52 % 87 % 0 % 1002,2 hPa 0,0 l/m 14,1 km/h (3 Bft) 0 min 0 min 31,7 km/h (5 Bft)
14.12.2011 21:12 13,0 C 4,5 C 0,0 UV-I 0,0 C 52 % 87 % 0 % 1002,2 hPa 0,0 l/m 14,5 km/h (3 Bft) 0 min 0 min 34,5 km/h (5 Bft)
14.12.2011 21:14 13,0 C 4,5 C 0,0 UV-I 0,0 C 52 % 87 % 0 % 1002,2 hPa 0,0 l/m 15,7 km/h (3 Bft) 0 min 2 min 34,5 km/h (5 Bft)
14.12.2011 21:16 12,8 C 4,5 C 0,0 UV-I 0,0 C 52 % 87 % 0 % 1002,2 hPa 0,0 l/m 16,1 km/h (3 Bft) 0 min 2 min 12,8 km/h (3 Bft)
14.12.2011 21:18 13,0 C 4,5 C 0,0 UV-I 0,0 C 52 % 87 % 0 % 1002,2 hPa 0,0 l/m 16,1 km/h (3 Bft) 0 min 2 min 16,1 km/h (3 Bft)
14.12.2011 21:20 13,0 C 4,5 C 0,0 UV-I 0,0 C 52 % 87 % 0 % 1002,2 hPa 0,0 l/m 16,1 km/h (3 Bft) 0 min 2 min 16,1 km/h (3 Bft)
14.12.2011 21:22 13,0 C 4,5 C 0,0 UV-I 0,0 C 52 % 87 % 0 % 1002,2 hPa 0,0 l/m 16,1 km/h (3 Bft) 0 min 2 min 16,1 km/h (3 Bft)
14.12.2011 21:24 13,0 C 4,5 C 0,0 UV-I 0,0 C 53 % 87 % 0 % 1002,2 hPa 0,0 l/m 15,7 km/h (3 Bft) 0 min 2 min 23,3 km/h (4 Bft)
14.12.2011 21:26 12,8 C 4,4 C 0,0 UV-I 0,0 C 52 % 88 % 0 % 1002,2 hPa 0,0 l/m 13,7 km/h (3 Bft) 0 min 2 min 23,3 km/h (4 Bft)
14.12.2011 21:28 12,8 C 4,4 C 0,0 UV-I 0,0 C 53 % 87 % 0 % 1002,2 hPa 0,0 l/m 15,3 km/h (3 Bft) 0 min 2 min 30,5 km/h (5 Bft)
14.12.2011 21:30 12,8 C 4,4 C 0,0 UV-I 0,0 C 53 % 87 % 0 % 1002,2 hPa 0,0 l/m 15,7 km/h (3 Bft) 0 min 2 min 30,5 km/h (5 Bft)
14.12.2011 21:32 12,8 C 4,4 C 0,0 UV-I 0,0 C 53 % 88 % 0 % 1002,2 hPa 0,0 l/m 15,3 km/h (3 Bft) 0 min 2 min 20,5 km/h (4 Bft)
14.12.2011 21:34 12,9 C 4,4 C 0,0 UV-I 0,0 C 53 % 87 % 0 % 1002,2 hPa 0,0 l/m 15,3 km/h (3 Bft) 0 min 0 min 19,7 km/h (3 Bft)
14.12.2011 21:36 12,8 C 4,5 C 0,0 UV-I 0,0 C 53 % 87 % 0 % 1002,2 hPa 0,0 l/m 14,5 km/h (3 Bft) 0 min 0 min 15,3 km/h (3 Bft)
14.12.2011 21:38 12,8 C 4,4 C 0,0 UV-I 0,0 C 53 % 87 % 0 % 1002,2 hPa 0,0 l/m 13,7 km/h (3 Bft) 0 min 0 min 10,4 km/h (2 Bft)
14.12.2011 21:40 12,9 C 4,4 C 0,0 UV-I 0,0 C 53 % 87 % 0 % 1002,2 hPa 0,0 l/m 12,0 km/h (2 Bft) 0 min 0 min 25,3 km/h (4 Bft)
14.12.2011 21:42 12,9 C 4,4 C 0,0 UV-I 0,0 C 53 % 87 % 0 % 1002,2 hPa 0,0 l/m 11,2 km/h (2 Bft) 0 min 0 min 25,3 km/h (4 Bft)
14.12.2011 21:44 12,9 C 4,4 C 0,0 UV-I 0,0 C 53 % 87 % 0 % 1002,1 hPa 0,0 l/m 10,8 km/h (2 Bft) 0 min 0 min 24,1 km/h (4 Bft)
14.12.2011 21:46 12,8 C 4,3 C 0,0 UV-I 0,0 C 53 % 88 % 0 % 1002,1 hPa 0,0 l/m 11,6 km/h (2 Bft) 0 min 0 min 34,9 km/h (5 Bft)
14.12.2011 21:48 12,9 C 4,3 C 0,0 UV-I 0,0 C 53 % 88 % 0 % 1002,1 hPa 0,0 l/m 10,8 km/h (2 Bft) 0 min 0 min 34,9 km/h (5 Bft)
14.12.2011 21:50 12,9 C 4,3 C 0,0 UV-I 0,0 C 53 % 88 % 0 % 1002,1 hPa 0,0 l/m 11,2 km/h (2 Bft) 0 min 0 min 20,9 km/h (4 Bft)
14.12.2011 21:52 12,9 C 4,3 C 0,0 UV-I 0,0 C 53 % 88 % 0 % 1002,1 hPa 0,0 l/m 10,0 km/h (2 Bft) 0 min 0 min 20,9 km/h (4 Bft)
14.12.2011 21:54 12,8 C 4,3 C 0,0 UV-I 0,0 C 53 % 88 % 0 % 1002,1 hPa 0,0 l/m 11,2 km/h (2 Bft) 0 min 0 min 20,9 km/h (4 Bft)
14.12.2011 21:56 12,8 C 4,3 C 0,0 UV-I 0,0 C 53 % 88 % 0 % 1002,1 hPa 0,0 l/m 11,2 km/h (2 Bft) 0 min 0 min 20,9 km/h (4 Bft)
14.12.2011 21:58 12,9 C 4,3 C 0,0 UV-I 0,0 C 53 % 88 % 0 % 1002,1 hPa 0,0 l/m 10,8 km/h (2 Bft) 0 min 0 min 11,2 km/h (2 Bft)
14.12.2011 22:00 12,8 C 4,3 C 0,0 UV-I 0,0 C 53 % 88 % 0 % 1002,1 hPa 0,0 l/m 10,8 km/h (2 Bft) 0 min 0 min 14,9 km/h (3 Bft)
14.12.2011 22:02 12,8 C 4,3 C 0,0 UV-I 0,0 C 53 % 88 % 0 % 1002,1 hPa 0,0 l/m 10,8 km/h (2 Bft) 0 min 0 min 14,9 km/h (3 Bft)
14.12.2011 22:06 12,8 C 4,3 C 0,0 UV-I 0,0 C 53 % 88 % 0 % 1001,9 hPa 0,0 l/m 9,6 km/h (2 Bft) 0 min 0 min 14,9 km/h (3 Bft)
14.12.2011 22:08 12,8 C 4,3 C 0,0 UV-I 0,0 C 53 % 88 % 0 % 1001,9 hPa 0,0 l/m 8,4 km/h (2 Bft) 0 min 0 min 14,9 km/h (3 Bft)
14.12.2011 22:10 12,8 C 4,3 C 0,0 UV-I 0,0 C 53 % 88 % 0 % 1001,9 hPa 0,0 l/m 8,4 km/h (2 Bft) 0 min 0 min 12,0 km/h (2 Bft)
14.12.2011 22:12 12,8 C 4,3 C 0,0 UV-I 0,0 C 53 % 88 % 0 % 1001,9 hPa 0,0 l/m 8,0 km/h (2 Bft) 0 min 0 min 13,3 km/h (3 Bft)
14.12.2011 22:14 12,9 C 4,3 C 0,0 UV-I 0,0 C 53 % 88 % 0 % 1001,9 hPa 0,0 l/m 8,4 km/h (2 Bft) 0 min 0 min 14,9 km/h (3 Bft)
14.12.2011 22:16 12,8 C 4,3 C 0,0 UV-I 0,0 C 53 % 88 % 0 % 1001,9 hPa 0,1 l/m 8,4 km/h (2 Bft) 0 min 0 min 19,7 km/h (3 Bft)
14.12.2011 22:18 12,8 C 4,2 C 0,0 UV-I 0,0 C 53 % 88 % 0 % 1001,9 hPa 0,0 l/m 7,6 km/h (2 Bft) 0 min 0 min 19,7 km/h (3 Bft)
14.12.2011 22:20 12,8 C 4,3 C 0,0 UV-I 0,0 C 53 % 88 % 0 % 1001,9 hPa 0,0 l/m 8,0 km/h (2 Bft) 0 min 0 min 15,3 km/h (3 Bft)
14.12.2011 22:22 12,8 C 4,3 C 0,0 UV-I 0,0 C 53 % 88 % 0 % 1001,9 hPa 0,0 l/m 7,6 km/h (2 Bft) 0 min 0 min 9,6 km/h (2 Bft)
14.12.2011 22:24 12,8 C 4,3 C 0,0 UV-I 0,0 C 53 % 88 % 0 % 1002,0 hPa 0,0 l/m 8,0 km/h (2 Bft) 0 min 0 min 37,3 km/h (5 Bft)
14.12.2011 22:26 12,8 C 4,4 C 0,0 UV-I 0,0 C 53 % 88 % 0 % 1002,0 hPa 0,0 l/m 8,4 km/h (2 Bft) 0 min 0 min 37,3 km/h (5 Bft)
14.12.2011 22:28 12,8 C 4,4 C 0,0 UV-I 0,0 C 53 % 88 % 0 % 1002,0 hPa 0,0 l/m 9,2 km/h (2 Bft) 0 min 0 min 18,5 km/h (3 Bft)
14.12.2011 22:30 12,8 C 4,5 C 0,0 UV-I 0,0 C 53 % 88 % 0 % 1002,0 hPa 0,0 l/m 10,0 km/h (2 Bft) 0 min 0 min 28,1 km/h (4 Bft)
14.12.2011 22:32 12,8 C 4,4 C 0,0 UV-I 0,0 C 53 % 88 % 0 % 1002,0 hPa 0,0 l/m 10,8 km/h (2 Bft) 0 min 0 min 28,1 km/h (4 Bft)
14.12.2011 22:34 12,8 C 4,4 C 0,0 UV-I 0,0 C 53 % 88 % 0 % 1002,0 hPa 0,0 l/m 12,0 km/h (2 Bft) 0 min 0 min 22,1 km/h (4 Bft)
14.12.2011 22:37 12,8 C 4,4 C 0,0 UV-I 0,0 C 53 % 87 % 0 % 1002,0 hPa 0,0 l/m 11,6 km/h (2 Bft) 0 min 0 min 26,1 km/h (4 Bft)
14.12.2011 22:38 12,8 C 4,5 C 0,0 UV-I 0,0 C 53 % 87 % 0 % 1002,0 hPa 0,0 l/m 11,2 km/h (2 Bft) 0 min 0 min 26,1 km/h (4 Bft)
14.12.2011 22:40 12,8 C 4,5 C 0,0 UV-I 0,0 C 53 % 87 % 0 % 1002,0 hPa 0,0 l/m 12,0 km/h (2 Bft) 0 min 0 min 29,3 km/h (5 Bft)
14.12.2011 22:42 12,8 C 4,7 C 0,0 UV-I 0,0 C 53 % 87 % 0 % 1002,0 hPa 0,0 l/m 12,0 km/h (2 Bft) 0 min 0 min 32,1 km/h (5 Bft)
14.12.2011 22:44 12,8 C 4,7 C 0,0 UV-I 0,0 C 53 % 87 % 0 % 1001,7 hPa 0,0 l/m 12,4 km/h (3 Bft) 0 min 0 min 32,1 km/h (5 Bft)
14.12.2011 22:46 12,8 C 4,6 C 0,0 UV-I 0,0 C 53 % 87 % 0 % 1001,7 hPa 0,0 l/m 12,0 km/h (2 Bft) 0 min 0 min 32,1 km/h (5 Bft)
14.12.2011 22:48 12,8 C 4,7 C 0,0 UV-I 0,0 C 53 % 87 % 0 % 1001,7 hPa 0,0 l/m 12,4 km/h (3 Bft) 0 min 0 min 16,9 km/h (3 Bft)
14.12.2011 22:50 12,8 C 4,6 C 0,0 UV-I 0,0 C 53 % 87 % 0 % 1001,7 hPa 0,0 l/m 12,0 km/h (2 Bft) 0 min 0 min 16,9 km/h (3 Bft)
14.12.2011 22:52 12,8 C 4,7 C 0,0 UV-I 0,0 C 53 % 87 % 0 % 1001,7 hPa 0,0 l/m 11,6 km/h (2 Bft) 0 min 0 min 26,5 km/h (4 Bft)
14.12.2011 22:54 12,8 C 4,7 C 0,0 UV-I 0,0 C 53 % 87 % 0 % 1001,7 hPa 0,0 l/m 11,2 km/h (2 Bft) 0 min 0 min 26,5 km/h (4 Bft)
14.12.2011 22:56 12,8 C 4,7 C 0,0 UV-I 0,0 C 53 % 86 % 0 % 1001,7 hPa 0,0 l/m 12,0 km/h (2 Bft) 0 min 0 min 26,5 km/h (4 Bft)
14.12.2011 22:58 12,8 C 4,7 C 0,0 UV-I 0,0 C 53 % 86 % 0 % 1001,7 hPa 0,0 l/m 11,2 km/h (2 Bft) 0 min 0 min 26,5 km/h (4 Bft)
14.12.2011 23:00 12,8 C 4,8 C 0,0 UV-I 0,0 C 53 % 86 % 0 % 1001,7 hPa 0,0 l/m 11,2 km/h (2 Bft) 0 min 0 min 12,0 km/h (2 Bft)
14.12.2011 23:02 12,8 C 4,8 C 0,0 UV-I 0,0 C 53 % 86 % 0 % 1001,7 hPa 0,0 l/m 10,8 km/h (2 Bft) 0 min 0 min 12,0 km/h (2 Bft)
14.12.2011 23:04 12,8 C 4,8 C 0,0 UV-I 0,0 C 53 % 86 % 0 % 1001,8 hPa 0,0 l/m 12,0 km/h (2 Bft) 0 min 0 min 32,1 km/h (5 Bft)
14.12.2011 23:06 12,8 C 4,8 C 0,0 UV-I 0,0 C 53 % 86 % 0 % 1001,8 hPa 0,0 l/m 11,6 km/h (2 Bft) 0 min 0 min 32,1 km/h (5 Bft)
14.12.2011 23:08 12,8 C 4,9 C 0,0 UV-I 0,0 C 53 % 86 % 0 % 1001,8 hPa 0,0 l/m 11,6 km/h (2 Bft) 0 min 0 min 32,1 km/h (5 Bft)
14.12.2011 23:10 12,8 C 4,9 C 0,0 UV-I 0,0 C 53 % 86 % 0 % 1001,8 hPa 0,0 l/m 11,2 km/h (2 Bft) 0 min 0 min 32,1 km/h (5 Bft)
14.12.2011 23:12 12,8 C 4,9 C 0,0 UV-I 0,0 C 53 % 86 % 0 % 1001,8 hPa 0,0 l/m 11,6 km/h (2 Bft) 0 min 0 min 7,2 km/h (2 Bft)
14.12.2011 23:14 12,8 C 4,9 C 0,0 UV-I 0,0 C 53 % 86 % 0 % 1001,8 hPa 0,0 l/m 10,8 km/h (2 Bft) 0 min 0 min 15,7 km/h (3 Bft)
14.12.2011 23:16 12,8 C 4,9 C 0,0 UV-I 0,0 C 53 % 86 % 0 % 1001,8 hPa 0,0 l/m 9,6 km/h (2 Bft) 0 min 0 min 15,7 km/h (3 Bft)
14.12.2011 23:18 12,8 C 5,1 C 0,0 UV-I 0,0 C 53 % 85 % 0 % 1001,8 hPa 0,0 l/m 11,2 km/h (2 Bft) 0 min 0 min 28,5 km/h (4 Bft)
14.12.2011 23:20 12,8 C 5,0 C 0,0 UV-I 0,0 C 53 % 85 % 0 % 1001,8 hPa 0,0 l/m 12,0 km/h (2 Bft) 0 min 0 min 28,5 km/h (4 Bft)
14.12.2011 23:22 12,8 C 5,0 C 0,0 UV-I 0,0 C 53 % 85 % 0 % 1001,8 hPa 0,0 l/m 12,4 km/h (3 Bft) 0 min 0 min 28,5 km/h (4 Bft)
14.12.2011 23:24 12,8 C 5,1 C 0,0 UV-I 0,0 C 53 % 85 % 0 % 1001,4 hPa 0,0 l/m 12,4 km/h (3 Bft) 0 min 0 min 17,7 km/h (3 Bft)
14.12.2011 23:26 12,8 C 5,1 C 0,0 UV-I 0,0 C 53 % 85 % 0 % 1001,4 hPa 0,0 l/m 11,6 km/h (2 Bft) 0 min 0 min 17,7 km/h (3 Bft)
14.12.2011 23:28 12,8 C 5,2 C 0,0 UV-I 0,0 C 53 % 85 % 0 % 1001,4 hPa 0,0 l/m 12,0 km/h (2 Bft) 0 min 0 min 25,7 km/h (4 Bft)
14.12.2011 23:30 12,8 C 5,2 C 0,0 UV-I 0,0 C 53 % 85 % 0 % 1001,4 hPa 0,0 l/m 11,2 km/h (2 Bft) 0 min 0 min 25,7 km/h (4 Bft)
14.12.2011 23:32 12,8 C 5,2 C 0,0 UV-I 0,0 C 52 % 85 % 0 % 1001,4 hPa 0,0 l/m 11,2 km/h (2 Bft) 0 min 0 min 25,7 km/h (4 Bft)
14.12.2011 23:34 12,8 C 5,3 C 0,0 UV-I 0,0 C 53 % 85 % 0 % 1001,4 hPa 0,0 l/m 10,4 km/h (2 Bft) 0 min 0 min 17,3 km/h (3 Bft)
14.12.2011 23:36 12,8 C 5,2 C 0,0 UV-I 0,0 C 53 % 85 % 0 % 1001,4 hPa 0,0 l/m 10,8 km/h (2 Bft) 0 min 0 min 17,3 km/h (3 Bft)
14.12.2011 23:38 12,8 C 5,3 C 0,0 UV-I 0,0 C 52 % 84 % 0 % 1001,4 hPa 0,0 l/m 10,8 km/h (2 Bft) 0 min 0 min 17,3 km/h (3 Bft)
14.12.2011 23:40 12,8 C 5,3 C 0,0 UV-I 0,0 C 53 % 84 % 0 % 1001,4 hPa 0,0 l/m 10,4 km/h (2 Bft) 0 min 0 min 17,3 km/h (3 Bft)
14.12.2011 23:42 12,8 C 5,4 C 0,0 UV-I 0,0 C 52 % 84 % 0 % 1001,4 hPa 0,0 l/m 11,6 km/h (2 Bft) 0 min 0 min 26,1 km/h (4 Bft)
14.12.2011 23:44 12,8 C 5,5 C 0,0 UV-I 0,0 C 52 % 84 % 0 % 1001,2 hPa 0,0 l/m 12,0 km/h (2 Bft) 0 min 0 min 26,1 km/h (4 Bft)
14.12.2011 23:46 12,6 C 5,4 C 0,0 UV-I 0,0 C 52 % 84 % 0 % 1001,2 hPa 0,0 l/m 13,3 km/h (3 Bft) 0 min 0 min 18,5 km/h (3 Bft)
14.12.2011 23:48 12,8 C 5,5 C 0,0 UV-I 0,0 C 52 % 84 % 0 % 1001,2 hPa 0,0 l/m 14,9 km/h (3 Bft) 0 min 0 min 18,5 km/h (3 Bft)
14.12.2011 23:50 12,8 C 5,5 C 0,0 UV-I 0,0 C 52 % 84 % 0 % 1001,2 hPa 0,0 l/m 15,3 km/h (3 Bft) 0 min 0 min 19,7 km/h (3 Bft)
14.12.2011 23:52 12,6 C 5,5 C 0,0 UV-I 0,0 C 52 % 84 % 0 % 1001,2 hPa 0,0 l/m 14,9 km/h (3 Bft) 0 min 0 min 19,7 km/h (3 Bft)
14.12.2011 23:54 12,8 C 5,6 C 0,0 UV-I 0,0 C 52 % 83 % 0 % 1001,2 hPa 0,0 l/m 15,7 km/h (3 Bft) 0 min 0 min 19,7 km/h (3 Bft)
14.12.2011 23:56 12,8 C 5,6 C 0,0 UV-I 0,0 C 52 % 83 % 0 % 1001,2 hPa 0,0 l/m 15,7 km/h (3 Bft) 0 min 0 min 19,7 km/h (3 Bft)
14.12.2011 23:58 12,8 C 5,6 C 0,0 UV-I 0,0 C 52 % 83 % 0 % 1001,2 hPa 0,0 l/m 14,1 km/h (3 Bft) 0 min 0 min 20,5 km/h (4 Bft)
_ Min-Zeit 23:46 19:36 00:00 00:00 04:08 03:04 00:00 07:44 - 06:32 - - 06:04
Minimum _ 12,6 C 4,2 C 0,0 UV-I 0,0 C 51 % 77 % 0 % 991,6 hPa - 2,0 km/h (1 Bft) - - 0,0 km/h (0 Bft)
_ Max-Zeit 13:50 09:18 13:42 13:46 11:48 12:00 13:46 21:06 16:06 20:36 00:00 05:38 08:32
Maximum _ 14,2 C 8,7 C 0,2 UV-I 0,3 C 57 % 90 % 9 % 1002,2 hPa 0,6 l/m 21,3 km/h
O-SO (4 Bft)
0 min 2 min 73,5 km/h
W-SW (8 Bft)
Durchschnitt _ 13,6 C 6,2 C 0,0 UV-I 0,0 C 54 % 85 % 0 % 997,7 hPa #7,2 l/m 9,8 km/h (2 Bft) #0 min. #6:08 h 17,5 km/h (3 Bft)
© 2012 W. Hausmann